GEFSSE_prec_meanprecacc_078.txt.gz
Total_Precipitation_Accumulation
0.03 0.04 0.10 0.09 0.05 0.04 0.05 0.09 0.12 0.13 0.13 0.15 0.15 0.13 0.10 0.07 0.05 0.03 0.03 0.02 0.02 0.02 0.03 0.04 0.04 0.05 0.05 0.05 0.06 0.07 0.08 0.10 0.12 0.20 0.36 0.47 0.51 0.63 0.87 0.98 1.05 0.90 0.80
0.01 0.02 0.09 0.12 0.09 0.07 0.07 0.09 0.12 0.13 0.14 0.15 0.15 0.14 0.13 0.09 0.05 0.03 0.03 0.02 0.02 0.03 0.03 0.03 0.04 0.04 0.03 0.03 0.03 0.05 0.07 0.11 0.19 0.35 0.49 0.52 0.64 0.82 0.97 0.96 1.02 0.82 0.63
0.00 0.01 0.05 0.11 0.11 0.09 0.09 0.10 0.13 0.13 0.14 0.13 0.12 0.12 0.11 0.08 0.05 0.03 0.03 0.02 0.02 0.03 0.02 0.03 0.03 0.03 0.03 0.03 0.04 0.05 0.08 0.15 0.31 0.57 0.84 0.89 0.60 0.84 0.99 0.99 0.93 0.62 0.43
0.01 0.01 0.02 0.07 0.10 0.10 0.09 0.10 0.11 0.12 0.10 0.10 0.09 0.09 0.09 0.06 0.04 0.03 0.03 0.03 0.03 0.04 0.03 0.03 0.03 0.03 0.02 0.02 0.04 0.07 0.11 0.18 0.35 0.64 1.09 0.87 0.59 0.57 0.71 0.68 0.60 0.46 0.31
0.01 0.01 0.02 0.06 0.08 0.09 0.11 0.10 0.11 0.10 0.09 0.09 0.08 0.08 0.07 0.06 0.04 0.03 0.04 0.04 0.05 0.06 0.06 0.05 0.05 0.05 0.03 0.03 0.05 0.09 0.16 0.23 0.37 0.64 0.75 0.84 0.90 0.59 0.48 0.47 0.46 0.37 0.24
0.02 0.01 0.04 0.07 0.08 0.09 0.09 0.10 0.10 0.10 0.09 0.10 0.09 0.08 0.07 0.06 0.06 0.05 0.05 0.05 0.07 0.09 0.10 0.10 0.09 0.07 0.04 0.03 0.05 0.10 0.17 0.29 0.50 0.46 0.42 0.62 0.69 0.51 0.45 0.46 0.42 0.34 0.23
0.05 0.03 0.04 0.09 0.10 0.10 0.11 0.13 0.12 0.10 0.10 0.10 0.09 0.09 0.09 0.08 0.08 0.07 0.07 0.07 0.08 0.10 0.11 0.11 0.12 0.10 0.06 0.03 0.04 0.09 0.17 0.32 0.52 0.45 0.37 0.47 0.46 0.41 0.45 0.48 0.46 0.38 0.26
0.09 0.05 0.06 0.12 0.15 0.15 0.15 0.17 0.16 0.13 0.12 0.12 0.12 0.12 0.11 0.10 0.10 0.12 0.12 0.11 0.11 0.11 0.12 0.13 0.14 0.13 0.10 0.07 0.06 0.08 0.16 0.27 0.37 0.42 0.40 0.45 0.33 0.41 0.50 0.44 0.42 0.40 0.33
0.13 0.08 0.08 0.10 0.13 0.15 0.19 0.21 0.20 0.17 0.15 0.15 0.15 0.14 0.12 0.12 0.13 0.15 0.18 0.19 0.18 0.18 0.16 0.17 0.18 0.19 0.17 0.13 0.11 0.11 0.17 0.30 0.41 0.57 0.53 0.49 0.36 0.48 0.70 0.59 0.43 0.35 0.36
0.27 0.14 0.13 0.13 0.16 0.16 0.18 0.21 0.21 0.19 0.18 0.18 0.18 0.18 0.18 0.20 0.25 0.30 0.30 0.29 0.28 0.29 0.30 0.33 0.33 0.35 0.35 0.28 0.25 0.25 0.27 0.31 0.44 0.80 0.75 0.55 0.47 0.60 0.82 0.90 0.74 0.57 0.43
0.42 0.27 0.25 0.24 0.20 0.23 0.24 0.25 0.32 0.32 0.34 0.37 0.41 0.38 0.35 0.38 0.51 0.64 0.57 0.56 0.56 0.59 0.64 0.70 0.71 0.73 0.69 0.54 0.49 0.50 0.45 0.37 0.65 0.97 0.87 0.65 0.64 0.82 1.03 1.19 1.07 0.95 0.80
0.53 0.43 0.37 0.36 0.34 0.36 0.38 0.57 0.74 0.70 0.80 0.76 0.86 0.78 0.78 0.81 0.70 0.58 0.69 0.81 0.91 1.09 1.19 1.25 1.30 1.30 1.18 0.95 0.97 0.90 0.49 0.43 0.68 0.89 0.82 0.71 0.75 0.93 1.16 1.38 1.31 1.14 1.02
0.76 0.71 0.50 0.50 0.48 0.55 0.65 0.84 0.99 1.03 1.09 1.05 1.10 1.14 1.22 1.22 1.03 0.91 1.07 1.30 1.42 1.56 1.63 1.88 1.93 1.59 1.55 1.56 1.57 1.31 0.96 0.79 0.82 0.93 0.67 0.76 0.85 1.00 1.26 1.42 1.38 1.28 1.16
0.99 1.03 0.90 0.89 0.84 0.85 0.89 0.93 0.98 0.94 0.98 1.06 1.15 1.26 1.40 1.37 1.38 1.35 1.41 1.49 1.63 1.82 2.03 2.12 2.12 2.01 2.11 2.09 1.84 1.66 1.42 1.14 1.25 1.41 1.02 1.01 1.10 1.27 1.40 1.45 1.37 1.29 1.26
1.48 1.46 1.37 1.35 1.20 1.04 0.91 0.86 0.81 0.79 0.78 0.86 0.94 1.01 1.09 1.30 1.43 1.44 1.30 1.29 1.34 1.57 1.89 2.19 2.22 2.43 2.52 2.33 1.95 1.71 1.67 1.51 1.53 1.44 1.24 1.28 1.45 1.47 1.41 1.39 1.35 1.32 1.33
2.21 1.96 1.86 1.73 1.40 1.22 1.07 0.91 0.83 0.73 0.74 0.76 0.75 0.82 0.98 1.10 1.26 1.23 1.22 1.27 1.31 1.34 1.48 1.86 2.10 2.30 2.23 2.01 1.60 1.49 1.44 1.48 1.43 1.37 1.18 1.22 1.34 1.23 1.20 1.31 1.41 1.48 1.49
3.17 2.59 2.09 1.83 1.56 1.34 1.22 1.05 0.90 0.79 0.72 0.71 0.67 0.72 0.80 0.87 0.98 1.02 1.02 1.02 1.07 1.09 1.13 1.27 1.48 1.65 1.58 1.47 1.36 1.39 1.36 1.32 1.22 1.19 1.16 1.13 1.06 1.12 1.11 1.12 1.18 1.31 1.44
4.04 3.32 2.49 2.00 1.91 1.72 1.51 1.12 0.85 0.73 0.62 0.54 0.50 0.50 0.54 0.57 0.59 0.62 0.63 0.61 0.64 0.64 0.68 0.78 0.89 0.99 1.07 1.15 1.21 1.22 1.22 1.22 1.13 1.14 1.07 1.02 0.99 0.92 1.06 1.09 1.07 1.08 1.21
4.32 3.97 3.10 2.77 2.62 1.98 1.31 0.88 0.67 0.55 0.43 0.37 0.39 0.36 0.38 0.40 0.41 0.45 0.44 0.43 0.41 0.39 0.40 0.42 0.52 0.62 0.71 0.79 0.79 0.82 0.81 0.76 0.72 0.72 0.75 0.68 0.77 0.75 0.84 0.95 1.01 0.99 1.08
3.27 3.02 2.67 2.51 2.03 1.37 0.85 0.57 0.39 0.32 0.26 0.22 0.26 0.27 0.28 0.31 0.33 0.37 0.36 0.34 0.31 0.28 0.30 0.35 0.40 0.44 0.44 0.48 0.43 0.44 0.49 0.43 0.40 0.37 0.37 0.40 0.48 0.51 0.56 0.69 0.75 0.70 0.87
1.74 1.62 1.60 1.47 1.21 0.80 0.54 0.31 0.21 0.18 0.16 0.14 0.16 0.16 0.19 0.23 0.28 0.35 0.30 0.33 0.30 0.25 0.25 0.27 0.30 0.31 0.29 0.29 0.29 0.25 0.21 0.21 0.22 0.18 0.19 0.24 0.32 0.42 0.50 0.63 0.67 0.65 0.63
1.03 1.01 0.96 0.93 0.73 0.47 0.33 0.22 0.17 0.13 0.09 0.08 0.08 0.09 0.09 0.12 0.17 0.23 0.31 0.25 0.26 0.26 0.25 0.25 0.27 0.25 0.22 0.24 0.28 0.25 0.18 0.17 0.18 0.13 0.21 0.25 0.29 0.43 0.52 0.57 0.60 0.62 0.57
0.97 0.87 0.69 0.65 0.50 0.33 0.21 0.15 0.13 0.12 0.12 0.10 0.08 0.07 0.08 0.07 0.09 0.14 0.21 0.24 0.27 0.25 0.28 0.32 0.30 0.27 0.21 0.19 0.24 0.29 0.23 0.17 0.19 0.19 0.23 0.25 0.30 0.42 0.48 0.55 0.57 0.61 0.62
0.66 0.65 0.61 0.57 0.45 0.29 0.19 0.13 0.11 0.10 0.10 0.09 0.07 0.07 0.07 0.06 0.07 0.08 0.10 0.15 0.22 0.26 0.33 0.26 0.29 0.30 0.26 0.19 0.19 0.21 0.20 0.21 0.22 0.22 0.25 0.24 0.29 0.36 0.37 0.38 0.43 0.52 0.55
0.34 0.44 0.50 0.55 0.52 0.35 0.24 0.17 0.14 0.11 0.09 0.08 0.08 0.09 0.09 0.10 0.11 0.12 0.12 0.11 0.12 0.19 0.26 0.29 0.35 0.32 0.32 0.27 0.22 0.19 0.20 0.18 0.18 0.17 0.19 0.23 0.23 0.19 0.21 0.26 0.33 0.45 0.46
0.26 0.28 0.33 0.42 0.48 0.37 0.27 0.21 0.21 0.20 0.17 0.15 0.13 0.14 0.15 0.18 0.20 0.19 0.20 0.20 0.20 0.18 0.17 0.19 0.24 0.30 0.35 0.36 0.28 0.22 0.24 0.21 0.16 0.14 0.10 0.12 0.19 0.14 0.15 0.18 0.26 0.36 0.40

GEFSSE_prec_meanprecacc_084.txt.gz
Total_Precipitation_Accumulation
0.04 0.05 0.12 0.11 0.06 0.05 0.06 0.09 0.13 0.13 0.13 0.15 0.15 0.13 0.10 0.07 0.05 0.03 0.03 0.03 0.02 0.03 0.03 0.04 0.05 0.06 0.06 0.06 0.08 0.10 0.12 0.15 0.21 0.32 0.49 0.59 0.64 0.74 0.98 1.05 1.08 0.95 0.86
0.01 0.03 0.10 0.14 0.10 0.07 0.07 0.10 0.12 0.13 0.14 0.15 0.15 0.15 0.13 0.09 0.06 0.04 0.03 0.03 0.02 0.03 0.04 0.04 0.04 0.04 0.04 0.04 0.05 0.08 0.12 0.18 0.31 0.51 0.65 0.64 0.75 0.94 1.08 1.03 1.06 0.88 0.69
0.01 0.02 0.07 0.12 0.12 0.10 0.09 0.10 0.13 0.13 0.14 0.13 0.12 0.12 0.11 0.08 0.05 0.04 0.03 0.02 0.03 0.03 0.03 0.03 0.04 0.03 0.04 0.04 0.06 0.07 0.11 0.23 0.44 0.75 0.99 0.96 0.70 0.94 1.09 1.07 1.00 0.68 0.48
0.02 0.02 0.02 0.08 0.11 0.10 0.10 0.10 0.12 0.12 0.11 0.10 0.09 0.09 0.09 0.07 0.04 0.03 0.03 0.03 0.04 0.04 0.04 0.04 0.04 0.04 0.03 0.03 0.05 0.09 0.15 0.25 0.44 0.74 1.14 0.92 0.65 0.63 0.78 0.74 0.65 0.52 0.36
0.05 0.03 0.04 0.07 0.08 0.10 0.11 0.11 0.11 0.10 0.10 0.09 0.08 0.08 0.07 0.06 0.04 0.04 0.04 0.04 0.06 0.07 0.07 0.05 0.05 0.05 0.04 0.04 0.07 0.12 0.20 0.32 0.46 0.68 0.78 0.89 0.94 0.63 0.53 0.51 0.51 0.41 0.28
0.09 0.05 0.05 0.08 0.08 0.09 0.10 0.10 0.10 0.10 0.10 0.10 0.09 0.08 0.07 0.06 0.06 0.05 0.05 0.06 0.08 0.10 0.11 0.11 0.10 0.08 0.05 0.05 0.08 0.13 0.22 0.37 0.56 0.47 0.42 0.65 0.72 0.55 0.49 0.49 0.46 0.38 0.26
0.11 0.05 0.06 0.11 0.11 0.11 0.12 0.13 0.12 0.11 0.10 0.10 0.09 0.10 0.10 0.08 0.08 0.08 0.07 0.08 0.08 0.10 0.11 0.12 0.12 0.10 0.07 0.05 0.07 0.12 0.22 0.39 0.54 0.46 0.38 0.49 0.48 0.44 0.48 0.51 0.50 0.41 0.28
0.14 0.07 0.08 0.14 0.16 0.16 0.16 0.17 0.16 0.14 0.12 0.12 0.12 0.12 0.12 0.10 0.11 0.12 0.12 0.12 0.11 0.12 0.13 0.13 0.14 0.13 0.11 0.08 0.09 0.13 0.22 0.31 0.38 0.43 0.40 0.46 0.36 0.45 0.53 0.47 0.45 0.43 0.34
0.19 0.12 0.10 0.12 0.14 0.16 0.20 0.22 0.21 0.18 0.16 0.15 0.15 0.15 0.13 0.12 0.14 0.16 0.18 0.19 0.19 0.19 0.18 0.19 0.19 0.19 0.17 0.14 0.13 0.16 0.24 0.35 0.43 0.58 0.54 0.50 0.39 0.52 0.73 0.62 0.46 0.38 0.38
0.36 0.20 0.17 0.16 0.18 0.18 0.19 0.22 0.22 0.20 0.19 0.19 0.19 0.19 0.19 0.23 0.27 0.32 0.32 0.30 0.30 0.31 0.33 0.35 0.35 0.37 0.36 0.30 0.28 0.29 0.32 0.36 0.45 0.80 0.76 0.56 0.50 0.65 0.87 0.94 0.77 0.59 0.45
0.54 0.35 0.32 0.30 0.22 0.24 0.25 0.26 0.33 0.34 0.35 0.38 0.43 0.40 0.37 0.39 0.53 0.66 0.60 0.60 0.61 0.63 0.68 0.74 0.75 0.77 0.72 0.56 0.50 0.53 0.48 0.39 0.66 0.98 0.88 0.66 0.67 0.88 1.09 1.24 1.11 0.98 0.82
0.65 0.50 0.43 0.42 0.37 0.37 0.39 0.58 0.74 0.71 0.80 0.76 0.87 0.80 0.79 0.82 0.71 0.59 0.72 0.86 0.98 1.16 1.24 1.32 1.38 1.35 1.20 0.96 0.98 0.92 0.51 0.45 0.70 0.90 0.83 0.73 0.79 0.99 1.24 1.43 1.35 1.17 1.04
0.86 0.80 0.55 0.55 0.51 0.57 0.66 0.85 0.99 1.03 1.09 1.05 1.10 1.14 1.23 1.22 1.03 0.91 1.08 1.33 1.47 1.62 1.69 1.94 1.99 1.62 1.57 1.58 1.58 1.32 0.97 0.81 0.84 0.95 0.68 0.79 0.89 1.06 1.34 1.49 1.43 1.33 1.19
1.08 1.09 0.95 0.95 0.88 0.87 0.91 0.94 0.99 0.95 0.98 1.06 1.16 1.26 1.40 1.38 1.38 1.36 1.41 1.50 1.65 1.85 2.06 2.15 2.16 2.03 2.14 2.13 1.87 1.67 1.44 1.18 1.27 1.42 1.03 1.04 1.14 1.34 1.48 1.53 1.44 1.37 1.33
1.62 1.57 1.47 1.43 1.26 1.09 0.95 0.88 0.82 0.80 0.78 0.87 0.95 1.01 1.10 1.31 1.45 1.46 1.32 1.32 1.36 1.59 1.91 2.21 2.25 2.46 2.56 2.38 1.99 1.74 1.70 1.55 1.56 1.47 1.26 1.31 1.50 1.53 1.49 1.47 1.43 1.41 1.43
2.49 2.19 2.04 1.88 1.52 1.33 1.15 0.97 0.86 0.75 0.75 0.77 0.77 0.84 0.99 1.12 1.28 1.25 1.23 1.29 1.33 1.35 1.49 1.88 2.12 2.33 2.26 2.04 1.63 1.51 1.46 1.50 1.47 1.40 1.20 1.26 1.39 1.29 1.27 1.40 1.51 1.58 1.59
3.54 2.90 2.35 2.07 1.80 1.54 1.36 1.15 0.97 0.82 0.75 0.74 0.69 0.74 0.82 0.88 0.98 1.02 1.03 1.02 1.08 1.10 1.14 1.28 1.49 1.66 1.60 1.49 1.38 1.42 1.38 1.34 1.24 1.21 1.18 1.16 1.10 1.18 1.18 1.22 1.29 1.43 1.55
4.43 3.64 2.79 2.24 2.17 1.99 1.71 1.25 0.96 0.80 0.66 0.57 0.53 0.53 0.55 0.57 0.59 0.62 0.63 0.61 0.64 0.64 0.68 0.79 0.90 1.00 1.09 1.17 1.24 1.25 1.25 1.25 1.16 1.18 1.13 1.06 1.03 0.96 1.12 1.19 1.18 1.20 1.34
4.75 4.32 3.39 3.06 2.89 2.24 1.55 1.03 0.77 0.62 0.48 0.41 0.42 0.38 0.38 0.40 0.41 0.45 0.45 0.43 0.41 0.40 0.41 0.43 0.53 0.63 0.72 0.80 0.81 0.86 0.85 0.79 0.75 0.75 0.80 0.71 0.80 0.77 0.87 1.00 1.08 1.07 1.18
3.75 3.45 3.00 2.83 2.33 1.60 1.04 0.71 0.48 0.39 0.31 0.27 0.28 0.28 0.29 0.31 0.33 0.37 0.36 0.34 0.31 0.29 0.31 0.36 0.41 0.44 0.44 0.48 0.44 0.46 0.51 0.44 0.43 0.39 0.39 0.41 0.49 0.53 0.58 0.71 0.78 0.74 0.93
2.22 2.10 1.98 1.79 1.47 0.98 0.68 0.43 0.29 0.23 0.19 0.17 0.18 0.17 0.20 0.23 0.29 0.35 0.30 0.33 0.30 0.25 0.25 0.27 0.31 0.31 0.29 0.29 0.30 0.25 0.22 0.23 0.23 0.19 0.19 0.25 0.33 0.43 0.51 0.65 0.68 0.66 0.65
1.41 1.41 1.34 1.21 0.93 0.60 0.44 0.32 0.26 0.20 0.13 0.10 0.09 0.10 0.10 0.12 0.17 0.24 0.31 0.25 0.26 0.26 0.26 0.25 0.27 0.25 0.22 0.25 0.28 0.26 0.19 0.17 0.19 0.13 0.21 0.25 0.29 0.43 0.52 0.58 0.61 0.63 0.58
1.25 1.14 0.96 0.89 0.70 0.48 0.34 0.26 0.21 0.18 0.15 0.12 0.09 0.08 0.08 0.07 0.09 0.14 0.21 0.24 0.27 0.25 0.28 0.33 0.30 0.27 0.21 0.19 0.24 0.30 0.23 0.17 0.19 0.19 0.23 0.25 0.30 0.42 0.48 0.56 0.58 0.61 0.62
0.82 0.82 0.78 0.74 0.64 0.43 0.31 0.21 0.16 0.14 0.12 0.10 0.08 0.07 0.07 0.06 0.07 0.08 0.10 0.15 0.22 0.26 0.34 0.26 0.29 0.30 0.26 0.19 0.20 0.21 0.21 0.21 0.22 0.22 0.25 0.24 0.29 0.36 0.37 0.38 0.43 0.52 0.55
0.44 0.55 0.62 0.72 0.70 0.48 0.34 0.23 0.19 0.15 0.12 0.09 0.08 0.09 0.09 0.10 0.11 0.12 0.12 0.11 0.12 0.19 0.26 0.29 0.35 0.32 0.32 0.27 0.22 0.19 0.20 0.18 0.18 0.17 0.19 0.23 0.23 0.19 0.21 0.26 0.33 0.45 0.46
0.33 0.37 0.44 0.56 0.63 0.50 0.37 0.28 0.26 0.24 0.20 0.17 0.14 0.14 0.15 0.18 0.20 0.19 0.20 0.20 0.20 0.18 0.17 0.19 0.24 0.30 0.35 0.36 0.28 0.22 0.24 0.21 0.16 0.14 0.11 0.12 0.19 0.14 0.15 0.18 0.27 0.36 0.40

GEFSSE_prec_meanprecacc_090.txt.gz
Total_Precipitation_Accumulation
0.04 0.05 0.13 0.12 0.07 0.06 0.07 0.10 0.14 0.14 0.14 0.16 0.16 0.14 0.10 0.08 0.05 0.04 0.03 0.03 0.03 0.03 0.03 0.05 0.06 0.07 0.08 0.09 0.12 0.14 0.16 0.20 0.31 0.44 0.60 0.66 0.71 0.81 1.04 1.14 1.18 1.03 0.91
0.01 0.03 0.11 0.15 0.11 0.08 0.08 0.10 0.13 0.14 0.15 0.16 0.16 0.15 0.13 0.09 0.06 0.04 0.04 0.03 0.03 0.04 0.04 0.04 0.04 0.05 0.05 0.05 0.08 0.12 0.17 0.25 0.44 0.66 0.79 0.75 0.83 0.99 1.13 1.10 1.14 0.97 0.75
0.01 0.02 0.08 0.13 0.13 0.10 0.09 0.10 0.13 0.14 0.15 0.14 0.13 0.13 0.12 0.09 0.06 0.04 0.04 0.03 0.04 0.04 0.03 0.04 0.04 0.04 0.04 0.05 0.09 0.11 0.16 0.30 0.57 0.92 1.14 1.10 0.77 0.98 1.13 1.12 1.06 0.75 0.54
0.02 0.02 0.03 0.09 0.12 0.11 0.11 0.11 0.12 0.12 0.11 0.10 0.10 0.10 0.09 0.07 0.05 0.04 0.04 0.04 0.05 0.05 0.05 0.05 0.04 0.04 0.04 0.05 0.09 0.13 0.19 0.30 0.53 0.84 1.23 1.00 0.71 0.67 0.83 0.81 0.73 0.58 0.42
0.06 0.03 0.04 0.07 0.09 0.11 0.12 0.12 0.12 0.11 0.10 0.09 0.09 0.09 0.08 0.06 0.05 0.04 0.05 0.05 0.06 0.08 0.08 0.06 0.06 0.06 0.05 0.07 0.11 0.16 0.25 0.38 0.53 0.71 0.82 0.99 1.05 0.70 0.60 0.60 0.61 0.48 0.33
0.10 0.06 0.06 0.09 0.09 0.10 0.11 0.11 0.11 0.10 0.10 0.11 0.10 0.09 0.08 0.07 0.07 0.06 0.06 0.06 0.08 0.11 0.12 0.11 0.11 0.09 0.06 0.07 0.11 0.17 0.29 0.44 0.61 0.49 0.45 0.72 0.79 0.61 0.56 0.57 0.56 0.46 0.31
0.12 0.06 0.07 0.12 0.12 0.12 0.12 0.14 0.13 0.11 0.11 0.11 0.10 0.10 0.10 0.09 0.09 0.09 0.08 0.09 0.10 0.12 0.13 0.13 0.13 0.12 0.09 0.07 0.11 0.18 0.32 0.48 0.57 0.48 0.41 0.53 0.55 0.51 0.56 0.59 0.57 0.48 0.33
0.15 0.09 0.10 0.16 0.18 0.17 0.17 0.18 0.17 0.14 0.13 0.13 0.13 0.13 0.13 0.11 0.12 0.13 0.13 0.13 0.13 0.14 0.14 0.14 0.15 0.15 0.13 0.12 0.15 0.21 0.31 0.38 0.39 0.44 0.42 0.49 0.40 0.53 0.61 0.53 0.52 0.49 0.41
0.21 0.14 0.13 0.16 0.17 0.18 0.21 0.23 0.22 0.19 0.17 0.16 0.17 0.16 0.15 0.14 0.16 0.17 0.20 0.21 0.20 0.20 0.19 0.19 0.19 0.21 0.20 0.18 0.19 0.25 0.33 0.42 0.46 0.60 0.55 0.53 0.43 0.60 0.80 0.68 0.51 0.43 0.44
0.39 0.24 0.21 0.21 0.24 0.21 0.21 0.23 0.25 0.22 0.21 0.20 0.20 0.20 0.21 0.24 0.29 0.34 0.34 0.32 0.32 0.32 0.34 0.36 0.36 0.38 0.38 0.34 0.34 0.38 0.43 0.43 0.49 0.82 0.78 0.59 0.54 0.73 0.94 1.00 0.81 0.63 0.50
0.62 0.44 0.40 0.37 0.28 0.29 0.29 0.28 0.37 0.37 0.38 0.40 0.45 0.43 0.41 0.43 0.57 0.70 0.62 0.62 0.63 0.65 0.69 0.75 0.76 0.78 0.73 0.58 0.56 0.61 0.55 0.43 0.69 1.01 0.91 0.69 0.72 0.96 1.18 1.31 1.16 1.02 0.86
0.71 0.57 0.50 0.50 0.45 0.43 0.43 0.62 0.80 0.75 0.84 0.80 0.91 0.85 0.84 0.86 0.74 0.62 0.74 0.88 1.01 1.20 1.27 1.34 1.39 1.36 1.21 0.97 1.01 0.96 0.56 0.49 0.72 0.92 0.85 0.76 0.84 1.08 1.35 1.51 1.40 1.22 1.09
0.93 0.85 0.59 0.61 0.59 0.64 0.73 0.90 1.05 1.09 1.13 1.09 1.14 1.18 1.28 1.26 1.06 0.95 1.12 1.37 1.53 1.69 1.76 1.99 2.02 1.65 1.58 1.59 1.60 1.35 1.01 0.84 0.87 0.97 0.70 0.83 0.94 1.17 1.46 1.56 1.48 1.39 1.25
1.14 1.15 1.00 1.00 0.94 0.93 0.97 0.99 1.03 0.99 1.01 1.09 1.19 1.29 1.44 1.43 1.43 1.40 1.46 1.55 1.69 1.91 2.12 2.20 2.21 2.07 2.16 2.14 1.88 1.70 1.48 1.22 1.30 1.46 1.10 1.09 1.20 1.42 1.59 1.60 1.50 1.43 1.42
1.72 1.66 1.56 1.50 1.31 1.13 1.00 0.94 0.86 0.83 0.81 0.90 0.99 1.04 1.14 1.38 1.52 1.51 1.37 1.37 1.40 1.64 1.96 2.26 2.31 2.51 2.60 2.40 2.00 1.76 1.73 1.58 1.59 1.51 1.31 1.38 1.57 1.60 1.57 1.55 1.51 1.48 1.51
2.62 2.32 2.15 1.97 1.57 1.38 1.22 1.04 0.93 0.79 0.79 0.82 0.80 0.87 1.04 1.18 1.34 1.31 1.29 1.34 1.38 1.40 1.54 1.92 2.17 2.39 2.31 2.07 1.67 1.55 1.50 1.55 1.50 1.43 1.25 1.34 1.47 1.37 1.34 1.48 1.60 1.66 1.67
3.66 3.04 2.48 2.16 1.88 1.63 1.47 1.26 1.05 0.89 0.81 0.79 0.74 0.78 0.87 0.94 1.04 1.07 1.07 1.07 1.13 1.14 1.18 1.32 1.53 1.70 1.64 1.54 1.44 1.47 1.45 1.41 1.30 1.27 1.24 1.24 1.18 1.24 1.26 1.30 1.38 1.52 1.66
4.58 3.81 2.95 2.33 2.28 2.13 1.86 1.38 1.04 0.87 0.73 0.63 0.58 0.57 0.60 0.63 0.65 0.66 0.65 0.64 0.67 0.66 0.71 0.82 0.93 1.04 1.13 1.24 1.33 1.32 1.33 1.33 1.23 1.24 1.21 1.17 1.15 1.04 1.19 1.25 1.24 1.27 1.42
4.90 4.49 3.55 3.19 3.01 2.38 1.70 1.15 0.85 0.69 0.54 0.47 0.47 0.42 0.43 0.43 0.44 0.48 0.47 0.45 0.43 0.41 0.43 0.45 0.55 0.66 0.75 0.84 0.86 0.93 0.92 0.85 0.82 0.80 0.86 0.78 0.89 0.87 0.95 1.05 1.12 1.11 1.24
3.94 3.65 3.19 2.99 2.48 1.75 1.20 0.86 0.58 0.46 0.37 0.32 0.33 0.32 0.31 0.33 0.35 0.40 0.38 0.36 0.32 0.30 0.33 0.38 0.44 0.46 0.46 0.50 0.46 0.49 0.54 0.48 0.48 0.46 0.44 0.47 0.56 0.58 0.64 0.77 0.83 0.77 0.97
2.41 2.32 2.20 2.01 1.63 1.11 0.81 0.54 0.39 0.32 0.25 0.21 0.21 0.19 0.22 0.25 0.30 0.37 0.32 0.34 0.31 0.26 0.26 0.29 0.33 0.33 0.30 0.30 0.32 0.29 0.25 0.26 0.26 0.23 0.22 0.29 0.36 0.46 0.56 0.71 0.73 0.71 0.69
1.56 1.60 1.51 1.41 1.11 0.72 0.56 0.43 0.36 0.30 0.20 0.15 0.13 0.12 0.11 0.13 0.18 0.25 0.32 0.26 0.27 0.27 0.26 0.26 0.28 0.26 0.23 0.25 0.30 0.29 0.22 0.22 0.22 0.14 0.22 0.26 0.30 0.45 0.54 0.60 0.65 0.67 0.61
1.40 1.32 1.13 1.06 0.88 0.62 0.48 0.37 0.31 0.26 0.21 0.17 0.14 0.11 0.10 0.09 0.10 0.15 0.23 0.25 0.28 0.25 0.28 0.33 0.30 0.28 0.21 0.20 0.25 0.31 0.25 0.20 0.23 0.21 0.24 0.26 0.30 0.43 0.50 0.58 0.60 0.64 0.65
0.95 0.97 0.93 0.90 0.82 0.59 0.43 0.29 0.23 0.19 0.16 0.14 0.12 0.10 0.09 0.08 0.07 0.08 0.11 0.16 0.23 0.26 0.34 0.26 0.29 0.31 0.26 0.19 0.20 0.22 0.21 0.22 0.24 0.24 0.26 0.25 0.30 0.37 0.39 0.39 0.45 0.55 0.58
0.52 0.63 0.73 0.86 0.91 0.67 0.47 0.32 0.26 0.20 0.16 0.13 0.12 0.11 0.10 0.11 0.11 0.12 0.12 0.11 0.12 0.19 0.26 0.29 0.35 0.32 0.32 0.28 0.22 0.19 0.20 0.18 0.19 0.17 0.20 0.24 0.24 0.20 0.22 0.27 0.34 0.45 0.46
0.39 0.44 0.50 0.65 0.79 0.67 0.50 0.38 0.33 0.31 0.25 0.19 0.16 0.16 0.16 0.18 0.20 0.19 0.20 0.20 0.20 0.18 0.17 0.19 0.24 0.30 0.35 0.36 0.28 0.22 0.24 0.21 0.16 0.14 0.11 0.13 0.19 0.15 0.15 0.18 0.27 0.37 0.40

GEFSSE_prec_meanprecacc_096.txt.gz
Total_Precipitation_Accumulation
0.04 0.05 0.13 0.12 0.07 0.06 0.07 0.11 0.15 0.15 0.15 0.17 0.17 0.14 0.11 0.08 0.06 0.04 0.04 0.03 0.03 0.04 0.04 0.06 0.08 0.09 0.09 0.11 0.15 0.18 0.22 0.25 0.38 0.49 0.65 0.71 0.77 0.88 1.10 1.20 1.29 1.11 0.97
0.01 0.03 0.11 0.15 0.11 0.08 0.08 0.10 0.14 0.14 0.15 0.16 0.16 0.16 0.14 0.10 0.07 0.05 0.05 0.04 0.04 0.05 0.05 0.05 0.06 0.06 0.06 0.07 0.11 0.16 0.21 0.31 0.56 0.75 0.89 0.83 0.89 1.07 1.22 1.20 1.28 1.06 0.83
0.01 0.02 0.08 0.13 0.13 0.11 0.10 0.11 0.14 0.15 0.15 0.14 0.14 0.14 0.13 0.10 0.07 0.06 0.05 0.05 0.05 0.05 0.04 0.04 0.05 0.04 0.06 0.07 0.11 0.15 0.20 0.36 0.69 1.06 1.29 1.23 0.87 1.07 1.24 1.25 1.17 0.82 0.60
0.02 0.02 0.03 0.09 0.12 0.11 0.11 0.12 0.13 0.13 0.12 0.11 0.11 0.11 0.10 0.08 0.06 0.05 0.06 0.06 0.07 0.06 0.06 0.06 0.05 0.06 0.07 0.07 0.11 0.17 0.26 0.39 0.64 1.02 1.45 1.16 0.80 0.74 0.92 0.88 0.78 0.63 0.46
0.06 0.04 0.04 0.07 0.09 0.11 0.13 0.13 0.12 0.12 0.11 0.10 0.09 0.10 0.08 0.07 0.06 0.06 0.06 0.07 0.09 0.10 0.11 0.08 0.07 0.08 0.08 0.08 0.12 0.19 0.31 0.45 0.64 0.93 1.02 1.19 1.16 0.75 0.66 0.64 0.66 0.54 0.38
0.10 0.06 0.06 0.09 0.09 0.11 0.12 0.12 0.12 0.11 0.11 0.11 0.10 0.10 0.09 0.08 0.08 0.07 0.07 0.08 0.11 0.13 0.13 0.12 0.11 0.10 0.08 0.08 0.12 0.18 0.31 0.49 0.74 0.64 0.55 0.84 0.87 0.66 0.62 0.62 0.60 0.51 0.35
0.13 0.07 0.07 0.13 0.13 0.13 0.13 0.15 0.14 0.12 0.11 0.11 0.11 0.11 0.11 0.10 0.10 0.10 0.09 0.10 0.11 0.13 0.13 0.13 0.14 0.12 0.10 0.09 0.12 0.20 0.34 0.53 0.71 0.57 0.47 0.62 0.62 0.55 0.61 0.65 0.63 0.54 0.38
0.17 0.10 0.11 0.17 0.19 0.18 0.18 0.19 0.18 0.15 0.14 0.14 0.13 0.14 0.14 0.12 0.13 0.14 0.14 0.15 0.15 0.15 0.15 0.15 0.16 0.16 0.14 0.13 0.16 0.22 0.32 0.42 0.49 0.50 0.49 0.58 0.43 0.57 0.65 0.59 0.58 0.56 0.46
0.25 0.18 0.15 0.17 0.18 0.19 0.23 0.25 0.23 0.20 0.18 0.17 0.17 0.17 0.16 0.14 0.16 0.17 0.20 0.22 0.21 0.21 0.19 0.20 0.20 0.21 0.21 0.19 0.20 0.26 0.34 0.48 0.55 0.64 0.60 0.59 0.45 0.62 0.85 0.72 0.55 0.49 0.48
0.47 0.34 0.26 0.24 0.28 0.24 0.23 0.25 0.26 0.23 0.22 0.21 0.20 0.20 0.21 0.25 0.30 0.35 0.35 0.33 0.33 0.33 0.34 0.36 0.36 0.38 0.38 0.34 0.34 0.39 0.45 0.47 0.57 0.89 0.82 0.60 0.55 0.75 0.98 1.04 0.85 0.68 0.54
0.73 0.56 0.48 0.42 0.33 0.35 0.34 0.31 0.39 0.38 0.39 0.41 0.46 0.43 0.42 0.48 0.62 0.73 0.64 0.63 0.64 0.65 0.69 0.75 0.76 0.78 0.73 0.59 0.56 0.62 0.57 0.48 0.85 1.16 0.96 0.70 0.73 0.98 1.21 1.35 1.20 1.06 0.90
0.83 0.67 0.67 0.63 0.50 0.48 0.49 0.67 0.86 0.80 0.87 0.83 0.96 0.87 0.91 0.95 0.83 0.67 0.76 0.89 1.01 1.20 1.28 1.35 1.40 1.37 1.23 1.02 1.02 0.98 0.60 0.58 0.87 0.99 0.89 0.78 0.85 1.10 1.38 1.54 1.44 1.26 1.13
1.02 0.92 0.70 0.76 0.67 0.70 0.82 0.98 1.14 1.19 1.20 1.17 1.22 1.23 1.35 1.31 1.11 1.00 1.16 1.40 1.55 1.71 1.81 2.04 2.04 1.68 1.65 1.69 1.69 1.43 1.11 0.93 0.99 1.06 0.78 0.85 0.96 1.20 1.50 1.61 1.52 1.42 1.29
1.25 1.25 1.10 1.13 1.05 1.03 1.05 1.08 1.10 1.04 1.06 1.16 1.26 1.35 1.50 1.50 1.52 1.49 1.55 1.63 1.77 1.98 2.23 2.31 2.30 2.14 2.27 2.22 1.96 1.81 1.57 1.31 1.50 1.63 1.17 1.11 1.22 1.45 1.63 1.65 1.54 1.48 1.47
1.87 1.81 1.71 1.69 1.48 1.26 1.12 1.03 0.93 0.89 0.85 0.94 1.05 1.11 1.21 1.45 1.60 1.60 1.44 1.44 1.47 1.70 2.04 2.35 2.38 2.59 2.67 2.45 2.04 1.79 1.76 1.67 1.72 1.67 1.38 1.41 1.59 1.63 1.61 1.59 1.55 1.53 1.56
2.82 2.54 2.36 2.25 1.78 1.52 1.32 1.13 1.01 0.84 0.85 0.87 0.84 0.92 1.09 1.24 1.40 1.37 1.35 1.41 1.45 1.46 1.61 1.99 2.24 2.46 2.39 2.15 1.73 1.59 1.54 1.60 1.55 1.52 1.34 1.37 1.50 1.39 1.38 1.53 1.66 1.71 1.72
3.81 3.24 2.74 2.47 2.12 1.82 1.64 1.35 1.10 0.94 0.84 0.85 0.79 0.82 0.89 0.98 1.11 1.13 1.14 1.13 1.19 1.20 1.22 1.36 1.59 1.77 1.72 1.63 1.52 1.53 1.52 1.47 1.35 1.32 1.36 1.31 1.22 1.27 1.29 1.34 1.43 1.56 1.71
4.75 4.02 3.25 2.63 2.53 2.33 2.04 1.52 1.11 0.91 0.77 0.68 0.63 0.60 0.62 0.65 0.68 0.70 0.71 0.69 0.72 0.69 0.73 0.86 0.97 1.09 1.20 1.32 1.40 1.38 1.40 1.40 1.30 1.30 1.28 1.24 1.23 1.09 1.23 1.28 1.27 1.31 1.47
5.07 4.72 3.84 3.53 3.29 2.59 1.86 1.28 0.95 0.75 0.60 0.51 0.53 0.47 0.45 0.45 0.45 0.50 0.50 0.50 0.45 0.42 0.44 0.46 0.58 0.70 0.81 0.91 0.92 1.00 0.97 0.92 0.89 0.86 0.91 0.83 0.97 0.96 1.02 1.09 1.15 1.14 1.28
4.11 3.91 3.52 3.34 2.79 2.02 1.39 1.02 0.74 0.56 0.42 0.35 0.36 0.36 0.33 0.35 0.36 0.41 0.39 0.37 0.33 0.32 0.36 0.41 0.48 0.49 0.51 0.55 0.50 0.56 0.59 0.52 0.53 0.49 0.47 0.53 0.62 0.63 0.70 0.85 0.88 0.79 1.01
2.56 2.51 2.51 2.39 1.98 1.42 1.02 0.69 0.52 0.43 0.33 0.25 0.22 0.22 0.23 0.26 0.31 0.39 0.32 0.35 0.33 0.29 0.29 0.31 0.35 0.36 0.33 0.32 0.37 0.38 0.32 0.30 0.30 0.25 0.26 0.32 0.41 0.49 0.60 0.76 0.79 0.78 0.74
1.68 1.75 1.76 1.74 1.42 0.99 0.75 0.56 0.48 0.41 0.28 0.21 0.17 0.16 0.13 0.14 0.19 0.26 0.34 0.28 0.28 0.29 0.28 0.27 0.30 0.29 0.26 0.27 0.34 0.37 0.33 0.34 0.31 0.17 0.24 0.28 0.32 0.46 0.55 0.62 0.69 0.75 0.67
1.51 1.46 1.31 1.27 1.14 0.87 0.70 0.53 0.45 0.38 0.30 0.22 0.20 0.16 0.13 0.11 0.13 0.17 0.24 0.26 0.29 0.26 0.30 0.35 0.32 0.30 0.24 0.21 0.27 0.35 0.34 0.33 0.34 0.30 0.28 0.28 0.32 0.45 0.52 0.60 0.62 0.66 0.69
1.02 1.09 1.09 1.07 1.05 0.81 0.63 0.45 0.34 0.26 0.23 0.18 0.18 0.16 0.13 0.12 0.11 0.10 0.11 0.16 0.24 0.27 0.35 0.27 0.30 0.32 0.28 0.22 0.22 0.24 0.24 0.26 0.30 0.33 0.32 0.28 0.32 0.38 0.40 0.41 0.46 0.57 0.60
0.59 0.73 0.86 1.04 1.14 0.87 0.65 0.49 0.39 0.31 0.25 0.19 0.17 0.18 0.15 0.15 0.15 0.14 0.12 0.12 0.13 0.19 0.27 0.30 0.36 0.33 0.34 0.30 0.23 0.21 0.21 0.19 0.20 0.19 0.25 0.28 0.26 0.21 0.22 0.28 0.34 0.47 0.49
0.47 0.52 0.61 0.80 0.97 0.86 0.68 0.52 0.47 0.45 0.37 0.28 0.22 0.20 0.21 0.23 0.24 0.22 0.20 0.21 0.21 0.19 0.18 0.20 0.24 0.31 0.36 0.37 0.29 0.23 0.25 0.23 0.17 0.15 0.12 0.14 0.21 0.15 0.16 0.19 0.27 0.37 0.41

GEFSSE_prec_meanprecacc_102.txt.gz
Total_Precipitation_Accumulation
0.05 0.05 0.13 0.12 0.07 0.06 0.07 0.11 0.15 0.15 0.15 0.17 0.17 0.14 0.11 0.08 0.06 0.04 0.04 0.04 0.04 0.04 0.05 0.07 0.09 0.10 0.12 0.14 0.19 0.23 0.26 0.29 0.43 0.55 0.70 0.76 0.80 0.92 1.14 1.23 1.31 1.13 1.00
0.01 0.03 0.12 0.15 0.11 0.09 0.08 0.11 0.14 0.15 0.16 0.16 0.16 0.16 0.14 0.10 0.07 0.05 0.05 0.05 0.04 0.05 0.06 0.06 0.07 0.07 0.08 0.09 0.14 0.20 0.25 0.35 0.62 0.83 0.96 0.89 0.94 1.12 1.26 1.23 1.30 1.08 0.85
0.01 0.02 0.08 0.14 0.13 0.11 0.10 0.11 0.15 0.15 0.16 0.15 0.14 0.14 0.13 0.10 0.07 0.06 0.05 0.05 0.05 0.05 0.05 0.06 0.06 0.06 0.07 0.09 0.14 0.18 0.25 0.41 0.77 1.16 1.34 1.28 0.95 1.15 1.30 1.29 1.19 0.84 0.62
0.02 0.02 0.03 0.09 0.12 0.11 0.11 0.12 0.14 0.14 0.12 0.12 0.11 0.11 0.11 0.09 0.06 0.06 0.06 0.07 0.08 0.07 0.08 0.07 0.07 0.07 0.08 0.08 0.14 0.21 0.31 0.44 0.74 1.12 1.49 1.17 0.82 0.79 0.97 0.92 0.80 0.64 0.48
0.06 0.04 0.04 0.07 0.09 0.12 0.13 0.13 0.13 0.13 0.12 0.10 0.10 0.10 0.09 0.08 0.07 0.06 0.07 0.08 0.10 0.11 0.11 0.08 0.08 0.10 0.10 0.10 0.14 0.22 0.36 0.52 0.74 1.03 1.07 1.21 1.17 0.78 0.70 0.67 0.68 0.55 0.39
0.11 0.06 0.06 0.09 0.09 0.11 0.12 0.13 0.12 0.11 0.11 0.12 0.11 0.11 0.09 0.09 0.09 0.08 0.08 0.09 0.11 0.13 0.14 0.12 0.12 0.12 0.09 0.10 0.14 0.22 0.37 0.58 0.84 0.71 0.59 0.85 0.88 0.70 0.65 0.64 0.61 0.52 0.37
0.15 0.08 0.07 0.13 0.13 0.13 0.13 0.15 0.14 0.12 0.12 0.12 0.11 0.12 0.12 0.11 0.11 0.11 0.10 0.11 0.12 0.13 0.13 0.14 0.15 0.14 0.11 0.10 0.15 0.24 0.40 0.65 0.83 0.64 0.50 0.64 0.63 0.58 0.64 0.67 0.64 0.55 0.39
0.22 0.12 0.11 0.17 0.19 0.18 0.18 0.19 0.19 0.16 0.14 0.14 0.14 0.15 0.15 0.13 0.14 0.15 0.15 0.15 0.15 0.15 0.16 0.16 0.16 0.16 0.15 0.14 0.18 0.26 0.39 0.53 0.62 0.61 0.54 0.60 0.44 0.58 0.67 0.60 0.59 0.57 0.47
0.39 0.26 0.21 0.19 0.19 0.20 0.24 0.26 0.24 0.20 0.18 0.17 0.18 0.17 0.16 0.15 0.16 0.18 0.21 0.22 0.22 0.21 0.20 0.20 0.20 0.22 0.22 0.20 0.22 0.30 0.42 0.61 0.74 0.78 0.65 0.61 0.47 0.64 0.86 0.73 0.56 0.50 0.49
0.82 0.57 0.42 0.30 0.30 0.24 0.24 0.26 0.27 0.24 0.22 0.21 0.21 0.21 0.22 0.25 0.30 0.35 0.35 0.33 0.33 0.33 0.34 0.37 0.36 0.38 0.39 0.36 0.37 0.44 0.54 0.58 0.74 1.06 0.88 0.62 0.58 0.77 1.00 1.05 0.86 0.68 0.55
1.00 0.78 0.67 0.52 0.37 0.37 0.34 0.32 0.40 0.39 0.39 0.41 0.46 0.43 0.43 0.48 0.62 0.74 0.64 0.63 0.64 0.65 0.69 0.75 0.77 0.79 0.74 0.61 0.60 0.69 0.68 0.66 0.99 1.27 1.00 0.74 0.77 1.02 1.24 1.37 1.21 1.07 0.91
1.05 0.82 0.78 0.76 0.56 0.52 0.50 0.68 0.87 0.80 0.87 0.84 0.96 0.87 0.92 0.96 0.84 0.68 0.78 0.90 1.02 1.21 1.29 1.36 1.41 1.38 1.25 1.04 1.07 1.05 0.76 0.84 1.08 1.12 0.96 0.84 0.90 1.15 1.42 1.57 1.45 1.26 1.14
1.24 1.08 0.81 0.89 0.77 0.76 0.85 0.99 1.14 1.20 1.20 1.17 1.22 1.23 1.36 1.33 1.12 1.02 1.17 1.41 1.57 1.72 1.82 2.05 2.06 1.70 1.69 1.74 1.77 1.54 1.33 1.26 1.29 1.21 0.87 0.92 1.01 1.25 1.53 1.64 1.54 1.44 1.30
1.45 1.42 1.27 1.25 1.19 1.12 1.11 1.11 1.11 1.05 1.07 1.16 1.27 1.36 1.52 1.52 1.54 1.51 1.56 1.64 1.77 2.00 2.25 2.33 2.33 2.20 2.34 2.30 2.09 1.94 1.75 1.48 1.67 1.76 1.26 1.18 1.27 1.50 1.67 1.67 1.56 1.50 1.49
2.18 2.06 1.95 1.91 1.68 1.42 1.23 1.08 0.96 0.91 0.87 0.96 1.06 1.12 1.22 1.46 1.61 1.61 1.45 1.46 1.49 1.73 2.07 2.38 2.43 2.64 2.74 2.53 2.14 1.93 1.90 1.79 1.82 1.74 1.43 1.46 1.64 1.67 1.65 1.62 1.57 1.55 1.58
3.20 2.97 2.65 2.53 2.06 1.73 1.52 1.21 1.04 0.88 0.88 0.89 0.86 0.92 1.10 1.25 1.41 1.38 1.36 1.42 1.47 1.49 1.64 2.02 2.27 2.48 2.42 2.22 1.82 1.69 1.67 1.71 1.62 1.58 1.38 1.41 1.55 1.44 1.43 1.58 1.69 1.73 1.74
4.18 3.74 3.11 2.78 2.41 2.06 1.82 1.44 1.16 0.99 0.89 0.87 0.81 0.83 0.91 0.99 1.11 1.13 1.14 1.14 1.19 1.23 1.25 1.39 1.62 1.79 1.74 1.67 1.61 1.64 1.62 1.56 1.43 1.39 1.42 1.35 1.24 1.30 1.34 1.40 1.47 1.59 1.73
4.99 4.34 3.58 2.92 2.85 2.57 2.19 1.64 1.22 0.98 0.84 0.72 0.67 0.63 0.63 0.66 0.69 0.71 0.71 0.70 0.72 0.73 0.79 0.89 1.00 1.12 1.24 1.38 1.48 1.47 1.50 1.49 1.39 1.37 1.35 1.29 1.25 1.11 1.27 1.33 1.31 1.35 1.52
5.28 4.97 4.21 3.91 3.63 2.89 2.05 1.46 1.10 0.83 0.68 0.57 0.57 0.50 0.48 0.47 0.47 0.50 0.50 0.50 0.45 0.44 0.48 0.50 0.61 0.73 0.85 0.95 0.96 1.05 1.07 1.00 0.99 0.96 0.98 0.90 1.01 0.99 1.04 1.12 1.18 1.17 1.32
4.29 4.10 3.82 3.77 3.14 2.34 1.63 1.25 0.94 0.72 0.58 0.46 0.42 0.44 0.40 0.39 0.38 0.42 0.39 0.38 0.33 0.33 0.38 0.43 0.49 0.51 0.53 0.59 0.54 0.62 0.64 0.58 0.59 0.58 0.56 0.61 0.67 0.67 0.73 0.88 0.90 0.82 1.05
2.79 2.73 2.76 2.73 2.32 1.74 1.29 0.90 0.70 0.62 0.49 0.36 0.28 0.30 0.32 0.31 0.35 0.41 0.33 0.35 0.33 0.29 0.30 0.32 0.36 0.37 0.35 0.34 0.40 0.44 0.38 0.35 0.35 0.31 0.33 0.38 0.44 0.53 0.65 0.79 0.80 0.79 0.75
1.88 1.98 1.95 1.95 1.67 1.22 0.99 0.76 0.66 0.58 0.44 0.32 0.25 0.24 0.21 0.20 0.23 0.29 0.36 0.28 0.29 0.29 0.29 0.28 0.32 0.30 0.27 0.28 0.35 0.39 0.36 0.39 0.37 0.22 0.28 0.31 0.35 0.49 0.58 0.64 0.70 0.76 0.67
1.64 1.66 1.46 1.42 1.30 1.05 0.90 0.75 0.68 0.61 0.48 0.36 0.29 0.22 0.19 0.16 0.17 0.20 0.25 0.27 0.30 0.26 0.30 0.35 0.32 0.31 0.24 0.22 0.27 0.35 0.35 0.35 0.37 0.35 0.32 0.32 0.35 0.49 0.55 0.63 0.64 0.68 0.69
1.11 1.26 1.28 1.24 1.20 0.98 0.80 0.65 0.54 0.45 0.35 0.27 0.25 0.21 0.18 0.16 0.15 0.13 0.13 0.18 0.25 0.27 0.35 0.27 0.30 0.32 0.29 0.22 0.22 0.24 0.24 0.26 0.31 0.36 0.35 0.31 0.34 0.41 0.42 0.42 0.47 0.58 0.61
0.70 0.89 1.07 1.23 1.32 1.04 0.80 0.64 0.56 0.49 0.38 0.30 0.26 0.26 0.21 0.21 0.19 0.17 0.16 0.15 0.15 0.20 0.27 0.30 0.36 0.33 0.34 0.30 0.23 0.21 0.22 0.20 0.20 0.20 0.27 0.30 0.29 0.22 0.23 0.28 0.34 0.47 0.49
0.55 0.63 0.76 0.96 1.15 1.05 0.84 0.67 0.61 0.57 0.49 0.39 0.30 0.26 0.26 0.28 0.29 0.27 0.24 0.23 0.23 0.20 0.18 0.20 0.25 0.31 0.37 0.38 0.29 0.23 0.25 0.23 0.17 0.17 0.14 0.15 0.22 0.16 0.16 0.19 0.27 0.38 0.42

GEFSSE_prec_meanprecacc_108.txt.gz
Total_Precipitation_Accumulation
0.05 0.07 0.16 0.15 0.08 0.07 0.08 0.11 0.15 0.16 0.15 0.17 0.17 0.15 0.11 0.08 0.06 0.05 0.04 0.04 0.04 0.05 0.06 0.08 0.11 0.14 0.17 0.20 0.25 0.29 0.30 0.33 0.48 0.61 0.79 0.84 0.89 1.00 1.21 1.28 1.34 1.16 1.05
0.01 0.04 0.15 0.17 0.12 0.09 0.09 0.11 0.14 0.15 0.16 0.16 0.17 0.16 0.14 0.10 0.07 0.05 0.05 0.06 0.05 0.06 0.06 0.07 0.08 0.10 0.11 0.14 0.19 0.25 0.29 0.39 0.68 0.92 1.08 1.00 1.05 1.20 1.32 1.26 1.33 1.12 0.91
0.01 0.02 0.09 0.15 0.15 0.11 0.10 0.11 0.15 0.15 0.16 0.15 0.14 0.14 0.13 0.10 0.08 0.06 0.06 0.06 0.06 0.06 0.06 0.07 0.08 0.07 0.09 0.13 0.19 0.23 0.30 0.47 0.86 1.28 1.45 1.35 1.03 1.23 1.35 1.32 1.23 0.89 0.68
0.02 0.02 0.04 0.10 0.13 0.12 0.12 0.12 0.14 0.14 0.12 0.12 0.11 0.11 0.11 0.09 0.06 0.06 0.07 0.08 0.08 0.08 0.08 0.08 0.09 0.09 0.10 0.12 0.18 0.27 0.38 0.51 0.84 1.20 1.52 1.19 0.86 0.86 1.04 0.96 0.84 0.69 0.52
0.06 0.04 0.05 0.08 0.10 0.12 0.14 0.13 0.13 0.13 0.12 0.11 0.10 0.10 0.09 0.08 0.07 0.07 0.08 0.09 0.10 0.11 0.12 0.09 0.10 0.12 0.12 0.13 0.18 0.28 0.43 0.60 0.81 1.06 1.08 1.23 1.19 0.84 0.75 0.70 0.71 0.59 0.42
0.11 0.06 0.07 0.10 0.10 0.11 0.12 0.13 0.13 0.12 0.12 0.12 0.11 0.11 0.10 0.09 0.10 0.09 0.09 0.10 0.12 0.14 0.14 0.13 0.14 0.14 0.12 0.13 0.18 0.29 0.45 0.66 0.88 0.72 0.60 0.87 0.90 0.74 0.69 0.67 0.65 0.56 0.39
0.16 0.08 0.08 0.14 0.13 0.13 0.14 0.15 0.15 0.13 0.12 0.12 0.12 0.13 0.13 0.12 0.12 0.12 0.11 0.12 0.12 0.14 0.14 0.16 0.17 0.15 0.13 0.14 0.21 0.33 0.52 0.72 0.84 0.65 0.51 0.65 0.65 0.62 0.68 0.70 0.68 0.59 0.41
0.24 0.14 0.14 0.19 0.20 0.19 0.19 0.20 0.19 0.16 0.14 0.14 0.15 0.16 0.15 0.14 0.15 0.15 0.16 0.16 0.15 0.16 0.17 0.17 0.17 0.17 0.16 0.17 0.23 0.33 0.50 0.59 0.63 0.62 0.55 0.61 0.47 0.62 0.73 0.65 0.62 0.61 0.50
0.46 0.32 0.25 0.23 0.21 0.21 0.25 0.26 0.25 0.21 0.19 0.18 0.19 0.18 0.17 0.16 0.17 0.18 0.21 0.23 0.23 0.22 0.21 0.21 0.21 0.23 0.24 0.24 0.28 0.38 0.53 0.69 0.76 0.79 0.65 0.62 0.50 0.68 0.92 0.77 0.60 0.53 0.53
0.94 0.70 0.49 0.33 0.32 0.26 0.25 0.27 0.28 0.25 0.23 0.22 0.22 0.21 0.22 0.26 0.31 0.36 0.35 0.34 0.34 0.35 0.36 0.38 0.38 0.39 0.42 0.41 0.45 0.53 0.66 0.67 0.75 1.07 0.88 0.63 0.60 0.81 1.05 1.10 0.89 0.70 0.58
1.09 0.90 0.78 0.60 0.41 0.38 0.36 0.33 0.41 0.40 0.41 0.43 0.47 0.45 0.44 0.49 0.63 0.75 0.65 0.64 0.66 0.67 0.71 0.77 0.80 0.81 0.77 0.64 0.66 0.78 0.74 0.69 1.00 1.28 1.00 0.75 0.79 1.06 1.28 1.41 1.25 1.08 0.94
1.13 0.91 0.87 0.85 0.63 0.56 0.52 0.69 0.88 0.81 0.88 0.84 0.96 0.88 0.93 0.97 0.85 0.69 0.79 0.93 1.04 1.23 1.30 1.39 1.44 1.41 1.27 1.06 1.11 1.11 0.79 0.86 1.09 1.12 0.97 0.86 0.93 1.19 1.48 1.62 1.50 1.29 1.17
1.34 1.16 0.89 0.99 0.87 0.85 0.91 1.02 1.15 1.20 1.21 1.17 1.22 1.24 1.36 1.33 1.13 1.02 1.17 1.44 1.59 1.74 1.83 2.07 2.07 1.71 1.70 1.75 1.78 1.57 1.36 1.28 1.31 1.22 0.88 0.96 1.05 1.30 1.58 1.68 1.58 1.47 1.34
1.57 1.48 1.33 1.33 1.28 1.20 1.19 1.17 1.14 1.05 1.07 1.16 1.27 1.36 1.52 1.52 1.54 1.51 1.56 1.64 1.78 2.00 2.25 2.33 2.34 2.21 2.35 2.31 2.10 1.97 1.79 1.52 1.69 1.77 1.28 1.22 1.30 1.55 1.70 1.71 1.60 1.54 1.53
2.27 2.11 2.01 2.00 1.76 1.49 1.31 1.15 1.01 0.93 0.87 0.96 1.06 1.12 1.22 1.46 1.62 1.62 1.46 1.46 1.49 1.74 2.08 2.39 2.44 2.67 2.76 2.55 2.15 1.95 1.93 1.83 1.84 1.75 1.45 1.51 1.68 1.72 1.70 1.66 1.61 1.58 1.61
3.33 3.07 2.75 2.64 2.17 1.83 1.60 1.26 1.09 0.89 0.89 0.90 0.86 0.92 1.10 1.25 1.42 1.39 1.37 1.42 1.47 1.49 1.65 2.04 2.29 2.51 2.46 2.25 1.85 1.72 1.71 1.75 1.64 1.59 1.40 1.46 1.59 1.49 1.48 1.63 1.73 1.77 1.77
4.38 3.97 3.29 2.92 2.55 2.18 1.92 1.51 1.20 1.02 0.90 0.89 0.82 0.83 0.91 0.99 1.12 1.14 1.15 1.15 1.21 1.24 1.26 1.42 1.65 1.81 1.78 1.71 1.64 1.67 1.66 1.60 1.46 1.41 1.44 1.38 1.29 1.35 1.39 1.46 1.55 1.64 1.78
5.20 4.56 3.77 3.08 3.01 2.72 2.32 1.73 1.29 1.03 0.87 0.74 0.69 0.64 0.64 0.67 0.69 0.71 0.72 0.71 0.73 0.74 0.80 0.91 1.03 1.14 1.26 1.42 1.52 1.51 1.55 1.53 1.43 1.40 1.37 1.31 1.28 1.15 1.33 1.42 1.41 1.45 1.62
5.49 5.20 4.43 4.12 3.82 3.09 2.24 1.59 1.19 0.90 0.74 0.62 0.60 0.53 0.50 0.49 0.48 0.51 0.51 0.52 0.47 0.46 0.50 0.52 0.64 0.75 0.87 0.98 0.99 1.08 1.11 1.05 1.03 0.99 1.01 0.93 1.03 1.01 1.07 1.19 1.28 1.26 1.41
4.47 4.32 4.08 4.00 3.40 2.68 1.91 1.43 1.07 0.83 0.67 0.53 0.47 0.46 0.42 0.40 0.40 0.45 0.42 0.39 0.34 0.34 0.39 0.44 0.52 0.53 0.55 0.61 0.57 0.65 0.67 0.61 0.63 0.62 0.60 0.63 0.69 0.69 0.75 0.90 0.94 0.86 1.14
2.96 3.00 3.12 3.09 2.66 2.07 1.57 1.11 0.84 0.72 0.60 0.45 0.34 0.34 0.36 0.35 0.37 0.44 0.36 0.37 0.34 0.30 0.31 0.34 0.38 0.38 0.36 0.35 0.42 0.46 0.40 0.37 0.38 0.33 0.36 0.42 0.48 0.56 0.67 0.81 0.81 0.80 0.78
2.06 2.28 2.42 2.38 2.05 1.52 1.25 0.99 0.85 0.75 0.61 0.47 0.35 0.31 0.28 0.27 0.29 0.34 0.40 0.31 0.31 0.31 0.31 0.30 0.33 0.31 0.27 0.28 0.36 0.40 0.38 0.40 0.39 0.23 0.30 0.35 0.39 0.51 0.60 0.65 0.71 0.78 0.68
1.77 1.84 1.74 1.74 1.62 1.32 1.16 0.99 0.88 0.80 0.67 0.53 0.41 0.32 0.25 0.22 0.23 0.26 0.29 0.30 0.33 0.28 0.31 0.36 0.34 0.32 0.25 0.22 0.27 0.35 0.35 0.35 0.38 0.35 0.32 0.33 0.37 0.50 0.56 0.64 0.65 0.69 0.70
1.20 1.40 1.52 1.52 1.46 1.21 1.01 0.82 0.67 0.55 0.45 0.37 0.32 0.31 0.26 0.24 0.20 0.18 0.17 0.21 0.28 0.29 0.36 0.28 0.31 0.34 0.30 0.23 0.22 0.24 0.24 0.26 0.31 0.36 0.36 0.32 0.35 0.41 0.42 0.42 0.48 0.58 0.61
0.79 1.06 1.27 1.45 1.53 1.23 0.96 0.78 0.67 0.57 0.47 0.40 0.34 0.34 0.28 0.27 0.25 0.21 0.19 0.18 0.19 0.23 0.29 0.31 0.37 0.35 0.35 0.30 0.24 0.21 0.22 0.20 0.20 0.20 0.27 0.31 0.29 0.22 0.23 0.28 0.34 0.47 0.50
0.63 0.77 0.92 1.12 1.31 1.21 0.99 0.80 0.70 0.64 0.56 0.47 0.36 0.31 0.30 0.32 0.33 0.31 0.28 0.28 0.27 0.24 0.21 0.22 0.26 0.33 0.38 0.39 0.30 0.23 0.25 0.23 0.17 0.17 0.14 0.16 0.22 0.17 0.17 0.19 0.27 0.38 0.42

GEFSSE_prec_meanprecacc_114.txt.gz
Total_Precipitation_Accumulation
0.06 0.07 0.18 0.17 0.09 0.07 0.09 0.13 0.17 0.17 0.16 0.18 0.18 0.15 0.11 0.09 0.07 0.05 0.05 0.06 0.06 0.08 0.09 0.12 0.15 0.18 0.23 0.28 0.33 0.35 0.37 0.41 0.55 0.71 0.90 0.94 0.97 1.07 1.27 1.35 1.42 1.22 1.10
0.01 0.04 0.15 0.19 0.14 0.10 0.10 0.12 0.15 0.15 0.16 0.17 0.17 0.17 0.15 0.11 0.08 0.06 0.07 0.07 0.07 0.09 0.09 0.11 0.12 0.14 0.17 0.20 0.25 0.31 0.34 0.46 0.77 1.03 1.21 1.12 1.14 1.26 1.36 1.30 1.39 1.18 0.96
0.01 0.02 0.09 0.16 0.16 0.12 0.11 0.12 0.15 0.16 0.16 0.15 0.14 0.14 0.14 0.11 0.08 0.07 0.07 0.08 0.08 0.09 0.08 0.11 0.13 0.11 0.15 0.19 0.25 0.27 0.34 0.56 0.96 1.39 1.61 1.47 1.12 1.30 1.40 1.35 1.27 0.95 0.75
0.02 0.03 0.04 0.11 0.14 0.12 0.12 0.13 0.15 0.14 0.13 0.12 0.11 0.11 0.11 0.09 0.07 0.07 0.08 0.09 0.10 0.10 0.10 0.12 0.13 0.12 0.14 0.18 0.25 0.31 0.44 0.62 0.96 1.30 1.61 1.25 0.94 0.94 1.10 1.00 0.90 0.74 0.57
0.06 0.04 0.06 0.09 0.11 0.12 0.14 0.13 0.13 0.13 0.12 0.11 0.10 0.11 0.10 0.09 0.08 0.08 0.10 0.10 0.12 0.14 0.14 0.12 0.12 0.15 0.16 0.18 0.25 0.34 0.52 0.70 0.91 1.13 1.12 1.30 1.30 0.94 0.83 0.76 0.78 0.63 0.45
0.11 0.06 0.08 0.12 0.11 0.11 0.12 0.13 0.13 0.12 0.12 0.13 0.12 0.11 0.10 0.10 0.11 0.10 0.10 0.11 0.14 0.17 0.17 0.16 0.17 0.17 0.16 0.17 0.23 0.37 0.54 0.74 0.94 0.75 0.62 0.93 0.99 0.83 0.77 0.73 0.72 0.60 0.43
0.16 0.09 0.10 0.16 0.15 0.14 0.14 0.16 0.15 0.13 0.13 0.12 0.12 0.13 0.13 0.13 0.13 0.13 0.12 0.13 0.14 0.16 0.17 0.19 0.19 0.18 0.17 0.19 0.25 0.39 0.61 0.80 0.89 0.67 0.53 0.70 0.72 0.70 0.77 0.78 0.77 0.64 0.44
0.24 0.15 0.17 0.23 0.23 0.20 0.19 0.21 0.20 0.17 0.15 0.15 0.16 0.17 0.16 0.15 0.16 0.17 0.18 0.17 0.17 0.19 0.19 0.19 0.20 0.20 0.19 0.22 0.29 0.38 0.55 0.62 0.65 0.63 0.57 0.65 0.52 0.69 0.82 0.73 0.69 0.65 0.53
0.48 0.35 0.29 0.28 0.26 0.24 0.26 0.27 0.25 0.22 0.19 0.19 0.21 0.19 0.18 0.17 0.19 0.20 0.23 0.25 0.25 0.25 0.23 0.23 0.24 0.26 0.27 0.30 0.37 0.47 0.59 0.73 0.78 0.81 0.67 0.65 0.54 0.74 0.98 0.83 0.65 0.59 0.58
0.99 0.75 0.54 0.38 0.38 0.30 0.28 0.29 0.29 0.26 0.24 0.24 0.23 0.22 0.24 0.28 0.33 0.38 0.37 0.35 0.36 0.37 0.38 0.40 0.39 0.41 0.46 0.49 0.56 0.64 0.74 0.71 0.77 1.08 0.90 0.64 0.63 0.86 1.10 1.14 0.94 0.76 0.64
1.18 1.00 0.88 0.68 0.48 0.45 0.40 0.36 0.43 0.43 0.43 0.44 0.49 0.46 0.47 0.54 0.67 0.77 0.66 0.66 0.67 0.69 0.72 0.79 0.82 0.83 0.80 0.70 0.75 0.90 0.83 0.73 1.02 1.30 1.03 0.77 0.83 1.12 1.33 1.45 1.29 1.13 0.99
1.22 1.03 0.99 0.97 0.72 0.62 0.56 0.74 0.93 0.86 0.92 0.88 1.00 0.91 0.98 1.02 0.89 0.70 0.80 0.95 1.06 1.25 1.32 1.41 1.47 1.44 1.29 1.10 1.16 1.19 0.85 0.88 1.12 1.14 0.99 0.89 0.97 1.26 1.54 1.67 1.55 1.34 1.22
1.46 1.34 0.99 1.09 0.97 0.92 0.96 1.06 1.20 1.26 1.27 1.22 1.26 1.28 1.41 1.37 1.15 1.03 1.21 1.48 1.63 1.77 1.87 2.08 2.09 1.74 1.73 1.82 1.86 1.63 1.41 1.30 1.35 1.25 0.91 0.99 1.10 1.36 1.65 1.76 1.65 1.53 1.38
1.68 1.61 1.43 1.41 1.37 1.29 1.27 1.22 1.17 1.09 1.12 1.20 1.30 1.39 1.54 1.54 1.56 1.53 1.59 1.68 1.83 2.06 2.30 2.36 2.37 2.24 2.38 2.35 2.15 2.03 1.85 1.56 1.73 1.83 1.33 1.26 1.35 1.62 1.77 1.78 1.67 1.60 1.59
2.34 2.20 2.11 2.10 1.84 1.57 1.41 1.22 1.05 0.96 0.91 0.98 1.08 1.15 1.23 1.48 1.63 1.64 1.48 1.49 1.52 1.77 2.12 2.43 2.48 2.70 2.79 2.59 2.21 2.00 2.00 1.88 1.89 1.81 1.49 1.55 1.73 1.77 1.75 1.72 1.67 1.63 1.66
3.37 3.13 2.83 2.74 2.28 1.93 1.67 1.33 1.14 0.93 0.93 0.92 0.88 0.94 1.13 1.29 1.45 1.41 1.40 1.47 1.51 1.52 1.69 2.08 2.33 2.54 2.51 2.31 1.92 1.79 1.78 1.81 1.71 1.63 1.44 1.50 1.64 1.52 1.52 1.69 1.80 1.83 1.81
4.42 4.02 3.35 3.01 2.67 2.30 1.99 1.57 1.26 1.07 0.94 0.92 0.84 0.86 0.95 1.04 1.18 1.19 1.21 1.19 1.25 1.27 1.31 1.46 1.69 1.85 1.83 1.77 1.72 1.76 1.73 1.66 1.53 1.47 1.48 1.43 1.34 1.39 1.42 1.51 1.62 1.72 1.86
5.23 4.60 3.83 3.14 3.12 2.83 2.41 1.78 1.34 1.08 0.92 0.78 0.72 0.67 0.68 0.71 0.74 0.77 0.77 0.75 0.76 0.77 0.83 0.96 1.08 1.20 1.33 1.48 1.60 1.60 1.61 1.59 1.51 1.46 1.41 1.38 1.36 1.21 1.38 1.46 1.46 1.51 1.69
5.53 5.25 4.49 4.19 3.91 3.20 2.34 1.67 1.24 0.96 0.79 0.67 0.64 0.56 0.54 0.52 0.53 0.59 0.58 0.57 0.49 0.49 0.54 0.56 0.71 0.82 0.95 1.06 1.05 1.15 1.16 1.10 1.09 1.06 1.08 0.99 1.10 1.07 1.14 1.25 1.32 1.30 1.48
4.53 4.37 4.14 4.08 3.50 2.80 2.04 1.54 1.14 0.89 0.73 0.57 0.51 0.51 0.48 0.46 0.46 0.53 0.49 0.44 0.37 0.38 0.44 0.51 0.60 0.62 0.63 0.68 0.61 0.69 0.71 0.64 0.68 0.69 0.64 0.67 0.74 0.73 0.79 0.93 1.00 0.91 1.18
3.02 3.06 3.20 3.22 2.79 2.20 1.69 1.19 0.91 0.78 0.65 0.50 0.38 0.38 0.42 0.40 0.44 0.51 0.41 0.42 0.39 0.35 0.39 0.41 0.46 0.47 0.44 0.42 0.49 0.54 0.45 0.39 0.40 0.38 0.39 0.45 0.51 0.61 0.71 0.85 0.87 0.87 0.83
2.10 2.33 2.52 2.57 2.27 1.69 1.37 1.09 0.94 0.83 0.68 0.54 0.41 0.36 0.34 0.33 0.35 0.39 0.46 0.36 0.35 0.36 0.37 0.37 0.41 0.39 0.33 0.35 0.44 0.48 0.45 0.45 0.41 0.24 0.33 0.38 0.42 0.55 0.63 0.68 0.75 0.83 0.74
1.80 1.89 1.83 1.89 1.85 1.53 1.30 1.13 1.00 0.90 0.75 0.60 0.47 0.37 0.29 0.28 0.30 0.32 0.34 0.34 0.36 0.31 0.36 0.44 0.41 0.39 0.32 0.27 0.32 0.40 0.41 0.40 0.41 0.37 0.35 0.35 0.41 0.55 0.60 0.67 0.68 0.72 0.75
1.22 1.43 1.58 1.61 1.57 1.32 1.12 0.95 0.80 0.64 0.52 0.42 0.38 0.37 0.33 0.30 0.27 0.24 0.22 0.26 0.32 0.32 0.41 0.33 0.35 0.39 0.37 0.28 0.26 0.27 0.26 0.28 0.34 0.40 0.39 0.34 0.37 0.45 0.46 0.45 0.50 0.61 0.65
0.82 1.09 1.33 1.55 1.65 1.33 1.04 0.86 0.76 0.64 0.53 0.47 0.42 0.44 0.38 0.36 0.32 0.26 0.23 0.24 0.24 0.26 0.32 0.34 0.41 0.38 0.38 0.34 0.26 0.23 0.23 0.21 0.21 0.23 0.32 0.35 0.33 0.26 0.25 0.30 0.36 0.49 0.52
0.66 0.80 0.99 1.21 1.40 1.29 1.08 0.88 0.79 0.72 0.63 0.53 0.43 0.40 0.38 0.39 0.38 0.35 0.32 0.32 0.32 0.27 0.24 0.26 0.30 0.37 0.42 0.43 0.34 0.25 0.27 0.24 0.19 0.19 0.16 0.19 0.26 0.19 0.18 0.20 0.28 0.38 0.43

GEFSSE_prec_meanprecacc_120.txt.gz
Total_Precipitation_Accumulation
0.06 0.07 0.18 0.18 0.10 0.08 0.09 0.13 0.18 0.18 0.18 0.19 0.19 0.16 0.12 0.09 0.07 0.06 0.06 0.06 0.07 0.09 0.13 0.18 0.20 0.23 0.29 0.34 0.39 0.40 0.41 0.45 0.59 0.77 0.97 1.00 1.03 1.13 1.36 1.47 1.56 1.30 1.17
0.01 0.04 0.15 0.19 0.14 0.11 0.11 0.12 0.16 0.17 0.18 0.18 0.18 0.18 0.16 0.12 0.09 0.07 0.08 0.09 0.09 0.10 0.13 0.15 0.17 0.18 0.23 0.26 0.31 0.34 0.38 0.51 0.82 1.11 1.29 1.20 1.21 1.34 1.48 1.45 1.53 1.24 1.03
0.01 0.02 0.09 0.17 0.16 0.12 0.12 0.13 0.16 0.17 0.17 0.16 0.15 0.15 0.15 0.13 0.10 0.08 0.09 0.10 0.11 0.11 0.11 0.15 0.17 0.14 0.20 0.26 0.31 0.30 0.38 0.62 1.04 1.50 1.74 1.57 1.18 1.37 1.52 1.50 1.37 1.02 0.83
0.02 0.03 0.04 0.11 0.14 0.13 0.13 0.14 0.16 0.15 0.14 0.13 0.12 0.12 0.13 0.11 0.09 0.09 0.10 0.11 0.12 0.11 0.12 0.17 0.16 0.15 0.18 0.23 0.30 0.34 0.47 0.67 1.06 1.49 1.82 1.34 0.98 0.99 1.19 1.09 0.96 0.80 0.63
0.07 0.04 0.06 0.09 0.11 0.13 0.14 0.14 0.15 0.14 0.13 0.12 0.12 0.12 0.11 0.10 0.10 0.10 0.11 0.12 0.14 0.16 0.17 0.15 0.16 0.18 0.19 0.22 0.30 0.39 0.56 0.74 1.01 1.34 1.28 1.44 1.37 0.99 0.91 0.84 0.86 0.70 0.51
0.11 0.06 0.08 0.12 0.11 0.12 0.13 0.14 0.14 0.13 0.13 0.13 0.13 0.13 0.12 0.11 0.13 0.12 0.11 0.13 0.16 0.19 0.20 0.20 0.22 0.20 0.19 0.20 0.28 0.44 0.61 0.82 1.07 0.84 0.69 1.02 1.04 0.87 0.84 0.82 0.78 0.65 0.48
0.16 0.09 0.10 0.16 0.15 0.14 0.14 0.16 0.16 0.14 0.14 0.13 0.13 0.15 0.15 0.15 0.15 0.15 0.14 0.15 0.16 0.18 0.20 0.22 0.23 0.21 0.20 0.21 0.28 0.44 0.66 0.89 1.00 0.73 0.58 0.79 0.77 0.73 0.82 0.84 0.81 0.68 0.48
0.25 0.16 0.17 0.23 0.24 0.21 0.20 0.21 0.21 0.18 0.16 0.16 0.17 0.19 0.19 0.17 0.18 0.19 0.20 0.19 0.18 0.21 0.23 0.21 0.22 0.22 0.22 0.25 0.32 0.41 0.59 0.68 0.69 0.68 0.61 0.70 0.55 0.73 0.87 0.78 0.72 0.68 0.55
0.50 0.38 0.31 0.29 0.28 0.25 0.27 0.28 0.27 0.23 0.21 0.21 0.22 0.21 0.20 0.19 0.21 0.22 0.25 0.26 0.26 0.27 0.26 0.25 0.25 0.27 0.29 0.32 0.39 0.49 0.61 0.76 0.84 0.87 0.71 0.68 0.55 0.78 1.04 0.87 0.69 0.62 0.60
1.02 0.80 0.58 0.39 0.40 0.33 0.30 0.31 0.31 0.27 0.26 0.25 0.25 0.24 0.25 0.29 0.35 0.39 0.38 0.36 0.38 0.40 0.41 0.42 0.41 0.42 0.47 0.51 0.57 0.65 0.75 0.74 0.82 1.12 0.93 0.65 0.64 0.89 1.15 1.18 0.97 0.79 0.70
1.25 1.08 0.96 0.74 0.53 0.51 0.45 0.38 0.46 0.45 0.44 0.46 0.51 0.47 0.50 0.63 0.73 0.80 0.68 0.67 0.69 0.73 0.75 0.80 0.83 0.84 0.81 0.71 0.76 0.91 0.85 0.79 1.08 1.34 1.07 0.79 0.85 1.15 1.37 1.48 1.33 1.18 1.05
1.28 1.11 1.11 1.06 0.79 0.68 0.62 0.78 0.98 0.90 0.95 0.93 1.06 0.95 1.10 1.18 1.04 0.78 0.83 0.96 1.07 1.27 1.35 1.43 1.49 1.46 1.34 1.13 1.18 1.21 0.89 0.94 1.17 1.15 1.00 0.90 0.99 1.28 1.57 1.70 1.59 1.38 1.27
1.52 1.40 1.07 1.22 1.07 0.99 1.06 1.13 1.24 1.33 1.33 1.30 1.35 1.36 1.54 1.47 1.22 1.08 1.24 1.51 1.67 1.82 1.95 2.11 2.12 1.80 1.84 1.92 1.92 1.69 1.47 1.39 1.42 1.27 0.92 1.00 1.11 1.38 1.67 1.78 1.68 1.57 1.42
1.77 1.69 1.49 1.52 1.51 1.42 1.38 1.30 1.23 1.14 1.16 1.26 1.39 1.46 1.61 1.64 1.65 1.60 1.67 1.75 1.92 2.18 2.45 2.46 2.48 2.35 2.49 2.42 2.21 2.12 1.90 1.59 1.77 1.88 1.36 1.27 1.36 1.64 1.79 1.81 1.70 1.65 1.63
2.46 2.33 2.19 2.20 1.99 1.74 1.55 1.33 1.12 1.03 0.95 1.02 1.14 1.21 1.28 1.54 1.70 1.71 1.56 1.57 1.61 1.86 2.22 2.55 2.58 2.80 2.89 2.67 2.27 2.05 2.06 1.94 1.94 1.86 1.51 1.56 1.74 1.78 1.76 1.74 1.71 1.67 1.69
3.45 3.24 2.93 2.84 2.42 2.08 1.80 1.44 1.24 1.01 0.98 0.97 0.91 0.98 1.17 1.34 1.53 1.49 1.47 1.54 1.61 1.61 1.77 2.16 2.40 2.62 2.59 2.38 1.98 1.84 1.82 1.85 1.75 1.68 1.47 1.52 1.65 1.53 1.54 1.71 1.84 1.85 1.83
4.49 4.10 3.45 3.10 2.79 2.45 2.12 1.67 1.34 1.13 0.97 0.96 0.87 0.89 0.98 1.09 1.24 1.26 1.29 1.26 1.31 1.33 1.36 1.51 1.74 1.91 1.90 1.83 1.78 1.81 1.78 1.70 1.57 1.52 1.56 1.50 1.37 1.40 1.43 1.53 1.65 1.74 1.88
5.31 4.68 3.92 3.22 3.20 2.96 2.56 1.91 1.44 1.15 0.97 0.83 0.75 0.71 0.70 0.76 0.79 0.82 0.84 0.81 0.81 0.80 0.86 1.01 1.13 1.27 1.41 1.56 1.67 1.66 1.65 1.66 1.55 1.51 1.48 1.45 1.43 1.24 1.41 1.47 1.47 1.52 1.72
5.59 5.31 4.58 4.30 4.02 3.34 2.50 1.82 1.35 1.05 0.86 0.71 0.68 0.61 0.59 0.57 0.57 0.63 0.66 0.66 0.54 0.51 0.56 0.59 0.77 0.90 1.04 1.15 1.11 1.20 1.19 1.17 1.16 1.10 1.13 1.04 1.16 1.13 1.20 1.28 1.33 1.32 1.50
4.58 4.41 4.21 4.18 3.61 2.94 2.21 1.71 1.30 1.01 0.80 0.62 0.55 0.57 0.54 0.52 0.51 0.57 0.53 0.51 0.41 0.42 0.49 0.57 0.70 0.71 0.72 0.76 0.68 0.77 0.76 0.70 0.73 0.73 0.68 0.70 0.77 0.75 0.84 0.99 1.03 0.93 1.20
3.06 3.10 3.26 3.31 2.89 2.32 1.83 1.34 1.05 0.90 0.74 0.55 0.42 0.42 0.46 0.44 0.49 0.55 0.47 0.51 0.43 0.40 0.42 0.44 0.52 0.55 0.53 0.49 0.59 0.66 0.54 0.44 0.46 0.42 0.43 0.48 0.53 0.65 0.78 0.92 0.93 0.94 0.88
2.13 2.38 2.59 2.67 2.38 1.78 1.49 1.22 1.11 0.97 0.77 0.59 0.46 0.43 0.38 0.37 0.40 0.42 0.51 0.41 0.39 0.40 0.40 0.40 0.47 0.47 0.42 0.41 0.51 0.63 0.62 0.62 0.54 0.29 0.37 0.44 0.45 0.60 0.68 0.72 0.79 0.90 0.80
1.84 1.94 1.89 1.99 1.98 1.65 1.45 1.29 1.16 1.06 0.86 0.69 0.54 0.45 0.36 0.33 0.35 0.37 0.38 0.39 0.44 0.34 0.40 0.48 0.46 0.45 0.42 0.36 0.37 0.49 0.57 0.58 0.54 0.46 0.40 0.40 0.45 0.60 0.64 0.71 0.71 0.75 0.79
1.27 1.50 1.67 1.76 1.72 1.48 1.31 1.11 0.92 0.75 0.63 0.52 0.47 0.45 0.42 0.38 0.33 0.30 0.28 0.33 0.40 0.38 0.49 0.38 0.40 0.45 0.44 0.36 0.32 0.30 0.31 0.37 0.45 0.54 0.50 0.40 0.43 0.50 0.50 0.49 0.53 0.65 0.69
0.87 1.21 1.52 1.72 1.82 1.53 1.21 0.98 0.86 0.74 0.65 0.57 0.51 0.55 0.48 0.44 0.39 0.32 0.31 0.32 0.32 0.33 0.39 0.40 0.50 0.45 0.45 0.40 0.31 0.26 0.27 0.25 0.25 0.30 0.45 0.47 0.42 0.31 0.28 0.33 0.40 0.54 0.57
0.69 0.89 1.09 1.30 1.49 1.40 1.19 1.00 0.89 0.83 0.77 0.65 0.53 0.49 0.45 0.46 0.46 0.42 0.39 0.40 0.39 0.34 0.32 0.32 0.38 0.43 0.50 0.52 0.40 0.29 0.30 0.27 0.21 0.21 0.23 0.27 0.35 0.26 0.21 0.24 0.32 0.43 0.48

GEFSSE_prec_meanprecacc_126.txt.gz
Total_Precipitation_Accumulation
0.06 0.07 0.19 0.18 0.10 0.08 0.10 0.13 0.19 0.19 0.18 0.19 0.19 0.16 0.12 0.10 0.07 0.06 0.06 0.07 0.09 0.11 0.15 0.20 0.23 0.27 0.34 0.38 0.43 0.43 0.45 0.50 0.63 0.82 1.02 1.05 1.07 1.18 1.43 1.55 1.59 1.32 1.21
0.01 0.04 0.16 0.20 0.15 0.11 0.11 0.13 0.17 0.17 0.18 0.18 0.18 0.18 0.16 0.13 0.09 0.08 0.09 0.09 0.10 0.12 0.15 0.18 0.21 0.22 0.26 0.29 0.34 0.37 0.43 0.56 0.89 1.17 1.33 1.23 1.25 1.40 1.53 1.51 1.58 1.27 1.08
0.02 0.03 0.10 0.17 0.16 0.13 0.12 0.13 0.17 0.17 0.18 0.16 0.16 0.16 0.16 0.13 0.10 0.08 0.09 0.10 0.11 0.12 0.13 0.19 0.21 0.18 0.22 0.28 0.32 0.32 0.42 0.68 1.12 1.58 1.78 1.58 1.21 1.43 1.58 1.55 1.42 1.06 0.87
0.03 0.03 0.04 0.11 0.14 0.13 0.13 0.14 0.17 0.15 0.14 0.13 0.13 0.13 0.13 0.12 0.10 0.09 0.10 0.11 0.12 0.12 0.14 0.19 0.19 0.19 0.20 0.25 0.32 0.38 0.52 0.75 1.15 1.56 1.85 1.34 0.99 1.03 1.24 1.14 1.01 0.83 0.66
0.07 0.04 0.06 0.10 0.11 0.13 0.15 0.15 0.15 0.14 0.13 0.12 0.12 0.12 0.12 0.11 0.11 0.11 0.12 0.12 0.14 0.17 0.19 0.17 0.17 0.19 0.20 0.23 0.33 0.44 0.61 0.82 1.12 1.43 1.30 1.45 1.38 1.02 0.94 0.87 0.90 0.73 0.53
0.11 0.06 0.08 0.12 0.11 0.12 0.13 0.14 0.15 0.14 0.13 0.14 0.13 0.13 0.12 0.13 0.14 0.13 0.12 0.14 0.17 0.20 0.21 0.22 0.23 0.21 0.20 0.21 0.31 0.48 0.67 0.91 1.17 0.91 0.71 1.02 1.04 0.90 0.87 0.84 0.81 0.67 0.50
0.16 0.10 0.10 0.16 0.15 0.14 0.15 0.17 0.17 0.15 0.14 0.13 0.13 0.15 0.16 0.16 0.16 0.15 0.15 0.16 0.17 0.19 0.21 0.23 0.24 0.22 0.22 0.24 0.30 0.47 0.73 0.99 1.07 0.76 0.59 0.79 0.78 0.75 0.84 0.85 0.83 0.70 0.50
0.26 0.16 0.17 0.23 0.24 0.21 0.20 0.22 0.22 0.18 0.16 0.17 0.17 0.19 0.19 0.18 0.19 0.20 0.20 0.20 0.20 0.22 0.23 0.22 0.23 0.23 0.23 0.27 0.35 0.44 0.65 0.78 0.76 0.72 0.63 0.70 0.56 0.75 0.89 0.79 0.73 0.69 0.57
0.51 0.38 0.31 0.29 0.28 0.26 0.28 0.29 0.27 0.24 0.21 0.21 0.22 0.22 0.20 0.19 0.22 0.22 0.25 0.26 0.27 0.28 0.27 0.26 0.26 0.28 0.30 0.34 0.41 0.51 0.67 0.86 0.92 0.91 0.73 0.68 0.57 0.81 1.07 0.88 0.70 0.63 0.61
1.06 0.82 0.59 0.40 0.40 0.33 0.31 0.31 0.31 0.28 0.26 0.26 0.26 0.24 0.26 0.30 0.35 0.39 0.38 0.37 0.39 0.41 0.42 0.43 0.42 0.43 0.49 0.53 0.60 0.69 0.82 0.84 0.90 1.16 0.95 0.66 0.65 0.91 1.16 1.19 0.98 0.80 0.71
1.32 1.13 1.02 0.79 0.55 0.51 0.45 0.38 0.46 0.45 0.45 0.47 0.52 0.49 0.51 0.63 0.73 0.81 0.68 0.67 0.70 0.75 0.76 0.82 0.85 0.86 0.83 0.73 0.80 0.95 0.92 0.91 1.18 1.39 1.08 0.80 0.87 1.17 1.38 1.49 1.34 1.19 1.06
1.37 1.18 1.18 1.12 0.81 0.69 0.63 0.79 0.98 0.90 0.95 0.93 1.06 0.96 1.11 1.20 1.04 0.78 0.83 0.97 1.08 1.30 1.37 1.44 1.51 1.48 1.35 1.15 1.22 1.26 1.01 1.12 1.31 1.20 1.02 0.92 1.01 1.30 1.58 1.71 1.60 1.40 1.28
1.62 1.48 1.17 1.27 1.09 1.01 1.07 1.14 1.25 1.33 1.34 1.32 1.36 1.38 1.55 1.49 1.23 1.09 1.25 1.52 1.68 1.84 1.97 2.14 2.15 1.84 1.87 1.95 1.96 1.76 1.57 1.47 1.53 1.31 0.95 1.03 1.13 1.40 1.69 1.79 1.69 1.58 1.43
1.90 1.79 1.62 1.62 1.56 1.47 1.42 1.33 1.25 1.15 1.17 1.28 1.40 1.47 1.63 1.66 1.66 1.62 1.68 1.76 1.93 2.20 2.47 2.49 2.53 2.43 2.57 2.50 2.28 2.21 2.00 1.68 1.87 1.92 1.38 1.30 1.38 1.66 1.81 1.81 1.71 1.66 1.64
2.57 2.42 2.35 2.37 2.10 1.85 1.69 1.39 1.16 1.06 0.98 1.05 1.16 1.23 1.30 1.56 1.72 1.73 1.58 1.59 1.65 1.89 2.24 2.59 2.64 2.86 2.95 2.73 2.34 2.13 2.16 2.04 2.03 1.91 1.54 1.59 1.77 1.81 1.79 1.76 1.72 1.68 1.70
3.55 3.32 3.09 3.04 2.52 2.18 1.89 1.51 1.30 1.09 1.07 1.00 0.94 1.00 1.19 1.36 1.54 1.50 1.48 1.57 1.65 1.65 1.81 2.21 2.44 2.67 2.65 2.42 2.04 1.91 1.89 1.93 1.82 1.74 1.51 1.55 1.68 1.57 1.57 1.73 1.85 1.87 1.84
4.64 4.20 3.56 3.24 2.87 2.52 2.21 1.75 1.42 1.22 1.04 1.01 0.92 0.92 1.00 1.11 1.25 1.26 1.30 1.28 1.34 1.36 1.39 1.54 1.77 1.95 1.95 1.89 1.84 1.86 1.84 1.77 1.62 1.56 1.60 1.53 1.38 1.42 1.46 1.55 1.67 1.77 1.91
5.44 4.80 4.00 3.30 3.27 3.04 2.65 2.03 1.55 1.27 1.07 0.92 0.83 0.74 0.73 0.78 0.80 0.83 0.85 0.84 0.84 0.82 0.89 1.04 1.17 1.30 1.47 1.62 1.73 1.71 1.72 1.73 1.61 1.55 1.53 1.48 1.45 1.25 1.42 1.50 1.49 1.54 1.74
5.65 5.37 4.66 4.37 4.10 3.43 2.61 1.95 1.50 1.20 1.06 0.89 0.77 0.65 0.63 0.60 0.59 0.64 0.67 0.69 0.56 0.53 0.58 0.61 0.80 0.92 1.07 1.18 1.14 1.25 1.27 1.25 1.22 1.15 1.17 1.07 1.20 1.16 1.22 1.30 1.36 1.35 1.53
4.62 4.46 4.28 4.27 3.71 3.05 2.36 1.85 1.48 1.19 0.99 0.83 0.69 0.63 0.59 0.57 0.54 0.59 0.55 0.52 0.43 0.44 0.51 0.61 0.75 0.75 0.74 0.79 0.73 0.85 0.86 0.78 0.80 0.81 0.73 0.74 0.81 0.79 0.88 1.02 1.06 0.96 1.24
3.09 3.13 3.32 3.39 2.99 2.45 1.98 1.45 1.19 1.08 0.93 0.77 0.63 0.52 0.51 0.49 0.53 0.58 0.49 0.53 0.45 0.42 0.43 0.46 0.55 0.58 0.55 0.52 0.67 0.77 0.66 0.54 0.54 0.49 0.49 0.55 0.60 0.72 0.86 1.00 0.98 0.97 0.91
2.16 2.43 2.67 2.79 2.52 1.93 1.63 1.34 1.20 1.11 0.94 0.79 0.65 0.55 0.45 0.42 0.44 0.45 0.53 0.43 0.41 0.42 0.41 0.41 0.48 0.49 0.45 0.45 0.56 0.69 0.69 0.73 0.67 0.37 0.44 0.52 0.55 0.71 0.78 0.81 0.87 0.97 0.85
1.88 1.99 1.97 2.13 2.15 1.82 1.61 1.43 1.28 1.19 1.01 0.89 0.75 0.58 0.43 0.39 0.40 0.40 0.40 0.40 0.46 0.36 0.42 0.49 0.48 0.47 0.43 0.39 0.42 0.53 0.60 0.62 0.61 0.54 0.48 0.48 0.54 0.70 0.72 0.81 0.80 0.85 0.87
1.32 1.55 1.73 1.88 1.90 1.70 1.51 1.27 1.04 0.84 0.72 0.62 0.58 0.56 0.50 0.44 0.38 0.34 0.30 0.35 0.42 0.40 0.51 0.39 0.41 0.46 0.45 0.38 0.34 0.32 0.33 0.40 0.49 0.61 0.60 0.51 0.53 0.59 0.59 0.56 0.61 0.75 0.80
0.90 1.24 1.57 1.82 1.95 1.70 1.38 1.16 1.05 0.86 0.76 0.68 0.61 0.66 0.57 0.51 0.45 0.36 0.34 0.35 0.35 0.35 0.43 0.43 0.52 0.47 0.47 0.43 0.34 0.30 0.32 0.30 0.29 0.33 0.50 0.56 0.55 0.42 0.34 0.38 0.46 0.62 0.69
0.71 0.92 1.13 1.37 1.58 1.51 1.32 1.16 1.07 0.98 0.90 0.78 0.63 0.57 0.52 0.52 0.51 0.47 0.43 0.45 0.44 0.37 0.35 0.35 0.40 0.45 0.52 0.55 0.44 0.34 0.35 0.32 0.26 0.26 0.26 0.30 0.41 0.36 0.31 0.33 0.40 0.49 0.55

GEFSSE_prec_meanprecacc_132.txt.gz
Total_Precipitation_Accumulation
0.09 0.10 0.22 0.21 0.11 0.09 0.10 0.14 0.19 0.19 0.18 0.19 0.19 0.17 0.13 0.10 0.07 0.06 0.07 0.08 0.10 0.13 0.18 0.25 0.28 0.32 0.39 0.44 0.48 0.49 0.51 0.56 0.70 0.90 1.10 1.14 1.16 1.25 1.49 1.61 1.64 1.36 1.26
0.02 0.05 0.18 0.22 0.16 0.12 0.11 0.13 0.17 0.17 0.18 0.18 0.18 0.19 0.16 0.13 0.10 0.08 0.09 0.11 0.12 0.16 0.21 0.23 0.25 0.26 0.31 0.33 0.38 0.43 0.49 0.63 0.98 1.26 1.44 1.35 1.35 1.45 1.57 1.56 1.62 1.33 1.14
0.02 0.03 0.11 0.19 0.17 0.13 0.13 0.14 0.17 0.17 0.18 0.16 0.16 0.16 0.16 0.14 0.11 0.09 0.10 0.12 0.14 0.17 0.19 0.26 0.26 0.22 0.26 0.31 0.38 0.39 0.49 0.76 1.24 1.70 1.90 1.66 1.28 1.48 1.62 1.60 1.47 1.13 0.92
0.03 0.03 0.04 0.12 0.15 0.14 0.13 0.14 0.17 0.15 0.14 0.13 0.13 0.13 0.14 0.13 0.11 0.10 0.11 0.13 0.15 0.16 0.19 0.25 0.23 0.22 0.23 0.29 0.38 0.45 0.61 0.85 1.24 1.61 1.88 1.37 1.03 1.08 1.28 1.20 1.08 0.90 0.71
0.07 0.04 0.06 0.10 0.12 0.14 0.15 0.15 0.15 0.15 0.14 0.13 0.12 0.13 0.12 0.12 0.12 0.11 0.13 0.14 0.17 0.21 0.22 0.19 0.20 0.23 0.24 0.28 0.39 0.52 0.71 0.92 1.18 1.44 1.31 1.47 1.41 1.08 0.99 0.93 0.95 0.77 0.56
0.11 0.07 0.09 0.13 0.12 0.12 0.13 0.14 0.15 0.14 0.13 0.14 0.13 0.13 0.13 0.13 0.15 0.14 0.13 0.15 0.19 0.24 0.24 0.24 0.25 0.24 0.24 0.25 0.36 0.55 0.75 0.99 1.19 0.92 0.72 1.04 1.08 0.96 0.92 0.90 0.85 0.70 0.52
0.16 0.10 0.10 0.17 0.15 0.14 0.15 0.17 0.17 0.15 0.14 0.14 0.14 0.16 0.17 0.17 0.17 0.16 0.16 0.17 0.19 0.22 0.23 0.25 0.27 0.25 0.26 0.27 0.34 0.53 0.80 1.04 1.07 0.77 0.60 0.80 0.80 0.81 0.91 0.92 0.86 0.72 0.53
0.26 0.17 0.18 0.25 0.25 0.21 0.20 0.22 0.22 0.18 0.16 0.17 0.18 0.20 0.20 0.19 0.20 0.20 0.21 0.21 0.21 0.24 0.25 0.24 0.25 0.25 0.26 0.31 0.40 0.51 0.72 0.81 0.76 0.72 0.64 0.71 0.59 0.79 0.94 0.83 0.76 0.71 0.59
0.52 0.39 0.32 0.30 0.29 0.26 0.28 0.29 0.28 0.24 0.22 0.22 0.23 0.22 0.21 0.20 0.22 0.23 0.27 0.28 0.28 0.29 0.28 0.28 0.28 0.30 0.34 0.38 0.46 0.58 0.74 0.91 0.94 0.92 0.73 0.69 0.60 0.85 1.12 0.92 0.73 0.64 0.63
1.07 0.83 0.61 0.40 0.41 0.34 0.31 0.33 0.33 0.29 0.27 0.27 0.26 0.25 0.27 0.31 0.37 0.40 0.40 0.39 0.40 0.43 0.43 0.45 0.45 0.47 0.52 0.58 0.66 0.78 0.91 0.89 0.91 1.17 0.95 0.67 0.68 0.95 1.21 1.22 1.01 0.82 0.73
1.35 1.16 1.04 0.82 0.56 0.53 0.48 0.42 0.49 0.47 0.47 0.49 0.53 0.51 0.53 0.64 0.74 0.82 0.70 0.69 0.71 0.76 0.78 0.84 0.88 0.89 0.87 0.78 0.88 1.07 1.01 0.95 1.20 1.39 1.08 0.82 0.91 1.23 1.43 1.52 1.36 1.21 1.09
1.40 1.22 1.22 1.15 0.84 0.72 0.66 0.82 1.01 0.93 0.97 0.95 1.08 0.98 1.13 1.20 1.05 0.78 0.86 1.00 1.10 1.32 1.40 1.48 1.55 1.52 1.37 1.17 1.26 1.32 1.06 1.14 1.32 1.20 1.03 0.95 1.05 1.35 1.62 1.74 1.62 1.42 1.31
1.65 1.52 1.21 1.32 1.13 1.04 1.10 1.17 1.28 1.35 1.35 1.33 1.37 1.39 1.56 1.49 1.23 1.09 1.26 1.54 1.70 1.86 1.99 2.16 2.17 1.85 1.88 1.96 1.98 1.79 1.60 1.49 1.54 1.32 0.96 1.06 1.18 1.45 1.72 1.81 1.71 1.60 1.46
1.94 1.82 1.66 1.65 1.60 1.51 1.46 1.36 1.28 1.17 1.18 1.28 1.40 1.47 1.63 1.66 1.66 1.62 1.68 1.77 1.93 2.20 2.48 2.51 2.54 2.45 2.58 2.50 2.29 2.22 2.03 1.72 1.89 1.93 1.39 1.32 1.42 1.71 1.84 1.83 1.74 1.69 1.67
2.62 2.46 2.40 2.43 2.18 1.93 1.75 1.42 1.19 1.08 0.99 1.05 1.16 1.24 1.31 1.56 1.73 1.74 1.58 1.59 1.65 1.90 2.26 2.61 2.66 2.87 2.96 2.74 2.35 2.15 2.18 2.07 2.06 1.93 1.55 1.62 1.81 1.85 1.83 1.78 1.75 1.72 1.72
3.59 3.37 3.16 3.16 2.63 2.28 1.97 1.56 1.33 1.12 1.09 1.02 0.95 1.02 1.20 1.37 1.55 1.50 1.49 1.57 1.66 1.66 1.82 2.22 2.45 2.69 2.66 2.44 2.06 1.93 1.92 1.97 1.86 1.77 1.53 1.57 1.72 1.62 1.62 1.79 1.91 1.91 1.87
4.69 4.28 3.64 3.36 2.98 2.63 2.32 1.84 1.46 1.26 1.06 1.02 0.93 0.93 1.01 1.11 1.26 1.27 1.30 1.29 1.36 1.37 1.40 1.55 1.78 1.97 1.96 1.90 1.86 1.89 1.87 1.80 1.65 1.58 1.61 1.54 1.40 1.47 1.52 1.62 1.74 1.83 1.98
5.50 4.89 4.09 3.38 3.38 3.15 2.76 2.12 1.62 1.31 1.11 0.94 0.85 0.76 0.75 0.79 0.81 0.83 0.86 0.86 0.85 0.83 0.90 1.06 1.18 1.32 1.50 1.65 1.75 1.74 1.74 1.75 1.63 1.57 1.55 1.48 1.46 1.28 1.47 1.56 1.55 1.60 1.82
5.72 5.48 4.77 4.47 4.22 3.55 2.74 2.06 1.60 1.31 1.14 0.96 0.83 0.69 0.66 0.62 0.61 0.65 0.68 0.70 0.57 0.54 0.59 0.62 0.81 0.94 1.11 1.21 1.16 1.28 1.30 1.29 1.25 1.17 1.20 1.09 1.21 1.18 1.25 1.35 1.42 1.40 1.59
4.70 4.57 4.40 4.40 3.89 3.24 2.55 2.02 1.63 1.36 1.13 0.96 0.80 0.71 0.64 0.61 0.57 0.62 0.56 0.53 0.44 0.44 0.51 0.62 0.75 0.77 0.78 0.84 0.79 0.91 0.91 0.83 0.85 0.85 0.77 0.77 0.83 0.81 0.90 1.05 1.09 1.01 1.32
3.15 3.22 3.44 3.56 3.21 2.67 2.19 1.65 1.37 1.26 1.08 0.91 0.76 0.63 0.60 0.55 0.58 0.61 0.51 0.55 0.46 0.43 0.44 0.47 0.56 0.60 0.58 0.57 0.71 0.82 0.70 0.58 0.58 0.54 0.53 0.59 0.64 0.76 0.90 1.04 1.01 1.00 0.96
2.23 2.52 2.81 2.95 2.71 2.17 1.90 1.59 1.41 1.29 1.14 0.99 0.82 0.66 0.52 0.48 0.49 0.48 0.55 0.45 0.42 0.43 0.42 0.43 0.50 0.51 0.47 0.49 0.61 0.74 0.73 0.75 0.70 0.40 0.47 0.56 0.59 0.75 0.83 0.87 0.91 1.00 0.88
1.97 2.09 2.08 2.25 2.30 2.02 1.84 1.68 1.48 1.37 1.19 1.06 0.90 0.69 0.50 0.46 0.47 0.45 0.43 0.43 0.48 0.39 0.45 0.53 0.51 0.49 0.46 0.43 0.45 0.55 0.62 0.63 0.61 0.55 0.49 0.52 0.58 0.74 0.78 0.87 0.84 0.89 0.91
1.37 1.62 1.80 1.98 2.04 1.86 1.71 1.47 1.22 0.99 0.83 0.70 0.65 0.63 0.57 0.50 0.45 0.41 0.35 0.39 0.45 0.42 0.55 0.43 0.45 0.49 0.48 0.40 0.36 0.33 0.34 0.41 0.49 0.62 0.61 0.53 0.56 0.63 0.64 0.61 0.65 0.79 0.83
0.93 1.28 1.63 1.91 2.05 1.81 1.51 1.30 1.19 1.00 0.88 0.78 0.71 0.76 0.65 0.58 0.51 0.44 0.41 0.42 0.40 0.39 0.47 0.47 0.54 0.49 0.49 0.46 0.36 0.31 0.33 0.31 0.31 0.35 0.51 0.58 0.58 0.45 0.37 0.41 0.50 0.66 0.74
0.74 0.96 1.18 1.44 1.66 1.60 1.41 1.26 1.19 1.12 1.03 0.90 0.73 0.66 0.61 0.59 0.57 0.54 0.50 0.51 0.49 0.42 0.40 0.40 0.45 0.49 0.55 0.59 0.48 0.36 0.37 0.34 0.28 0.28 0.27 0.31 0.43 0.38 0.33 0.36 0.43 0.53 0.59

GEFSSE_prec_meanprecacc_138.txt.gz
Total_Precipitation_Accumulation
0.12 0.13 0.27 0.26 0.16 0.12 0.13 0.17 0.21 0.21 0.20 0.21 0.21 0.20 0.16 0.12 0.09 0.09 0.10 0.12 0.14 0.19 0.25 0.31 0.32 0.36 0.43 0.48 0.55 0.57 0.57 0.62 0.77 1.00 1.21 1.26 1.28 1.34 1.56 1.68 1.69 1.39 1.30
0.04 0.07 0.22 0.27 0.19 0.14 0.13 0.15 0.19 0.18 0.19 0.19 0.20 0.21 0.19 0.16 0.12 0.11 0.12 0.15 0.18 0.22 0.25 0.27 0.30 0.30 0.34 0.37 0.44 0.49 0.55 0.69 1.06 1.36 1.53 1.45 1.46 1.53 1.64 1.63 1.68 1.36 1.18
0.02 0.04 0.13 0.22 0.19 0.15 0.14 0.15 0.18 0.18 0.18 0.17 0.17 0.17 0.17 0.16 0.13 0.11 0.14 0.16 0.20 0.22 0.23 0.30 0.30 0.26 0.30 0.34 0.41 0.45 0.56 0.84 1.32 1.80 2.01 1.75 1.37 1.55 1.68 1.66 1.54 1.18 0.98
0.04 0.04 0.05 0.13 0.16 0.15 0.14 0.15 0.17 0.16 0.15 0.14 0.14 0.14 0.14 0.14 0.12 0.11 0.13 0.17 0.21 0.21 0.23 0.31 0.28 0.25 0.26 0.32 0.42 0.52 0.70 0.93 1.31 1.70 1.95 1.45 1.13 1.14 1.36 1.28 1.15 0.96 0.75
0.08 0.06 0.07 0.11 0.13 0.15 0.16 0.15 0.16 0.15 0.14 0.13 0.13 0.13 0.13 0.13 0.13 0.13 0.15 0.18 0.23 0.27 0.27 0.26 0.25 0.27 0.28 0.31 0.43 0.59 0.81 1.01 1.25 1.50 1.37 1.57 1.53 1.16 1.07 1.02 1.01 0.80 0.59
0.12 0.07 0.10 0.14 0.12 0.13 0.14 0.15 0.16 0.14 0.13 0.14 0.14 0.14 0.14 0.14 0.16 0.16 0.15 0.18 0.25 0.31 0.29 0.29 0.30 0.28 0.28 0.29 0.40 0.62 0.82 1.05 1.23 0.95 0.78 1.12 1.17 1.05 1.01 1.00 0.90 0.73 0.55
0.17 0.10 0.11 0.18 0.17 0.16 0.16 0.18 0.17 0.15 0.14 0.14 0.14 0.16 0.18 0.18 0.19 0.19 0.19 0.22 0.25 0.28 0.29 0.30 0.31 0.30 0.30 0.30 0.38 0.58 0.85 1.08 1.10 0.78 0.64 0.86 0.86 0.89 1.00 1.02 0.93 0.76 0.57
0.27 0.17 0.19 0.26 0.27 0.23 0.22 0.23 0.23 0.19 0.17 0.18 0.18 0.20 0.21 0.20 0.22 0.23 0.25 0.27 0.27 0.29 0.31 0.29 0.31 0.30 0.30 0.36 0.46 0.56 0.76 0.84 0.77 0.73 0.65 0.74 0.63 0.85 1.02 0.92 0.85 0.77 0.64
0.52 0.39 0.34 0.32 0.31 0.28 0.31 0.32 0.29 0.26 0.23 0.24 0.24 0.23 0.23 0.22 0.24 0.26 0.31 0.32 0.33 0.33 0.32 0.32 0.32 0.34 0.38 0.43 0.52 0.65 0.79 0.94 0.96 0.94 0.74 0.71 0.62 0.89 1.16 0.98 0.81 0.70 0.68
1.10 0.86 0.63 0.43 0.44 0.37 0.35 0.36 0.35 0.31 0.29 0.29 0.28 0.26 0.28 0.33 0.38 0.43 0.45 0.42 0.43 0.46 0.47 0.50 0.49 0.51 0.58 0.63 0.72 0.84 0.97 0.92 0.95 1.19 0.97 0.69 0.71 1.00 1.25 1.28 1.07 0.87 0.78
1.41 1.23 1.10 0.86 0.62 0.59 0.51 0.44 0.52 0.50 0.49 0.51 0.56 0.53 0.55 0.69 0.77 0.84 0.74 0.71 0.74 0.81 0.85 0.92 0.94 0.95 0.94 0.84 0.95 1.13 1.07 0.98 1.21 1.41 1.11 0.83 0.93 1.27 1.47 1.57 1.42 1.26 1.14
1.45 1.28 1.28 1.21 0.90 0.77 0.69 0.86 1.05 0.97 1.00 0.99 1.13 1.02 1.16 1.24 1.08 0.80 0.89 1.03 1.14 1.38 1.47 1.55 1.62 1.56 1.41 1.23 1.34 1.37 1.12 1.17 1.33 1.21 1.05 0.97 1.08 1.39 1.65 1.79 1.68 1.47 1.36
1.69 1.56 1.27 1.37 1.18 1.10 1.15 1.21 1.32 1.39 1.39 1.36 1.41 1.42 1.59 1.50 1.25 1.11 1.31 1.60 1.76 1.90 2.04 2.20 2.21 1.88 1.91 2.03 2.05 1.83 1.64 1.51 1.55 1.34 0.98 1.10 1.24 1.51 1.76 1.86 1.77 1.67 1.51
1.98 1.87 1.70 1.69 1.64 1.58 1.53 1.41 1.30 1.19 1.21 1.31 1.44 1.50 1.65 1.68 1.69 1.64 1.72 1.81 1.98 2.26 2.55 2.56 2.61 2.50 2.62 2.54 2.33 2.26 2.06 1.75 1.92 1.96 1.44 1.36 1.48 1.77 1.88 1.87 1.79 1.75 1.73
2.65 2.49 2.45 2.49 2.23 1.99 1.82 1.48 1.22 1.10 1.01 1.08 1.20 1.27 1.33 1.59 1.75 1.76 1.61 1.62 1.67 1.91 2.29 2.65 2.70 2.92 3.02 2.78 2.38 2.18 2.22 2.10 2.08 1.97 1.60 1.66 1.85 1.91 1.88 1.83 1.80 1.77 1.78
3.62 3.41 3.20 3.22 2.69 2.34 2.03 1.61 1.36 1.15 1.12 1.04 0.97 1.04 1.22 1.40 1.57 1.53 1.51 1.61 1.69 1.69 1.84 2.25 2.49 2.75 2.73 2.50 2.10 1.97 1.97 2.00 1.89 1.83 1.60 1.63 1.76 1.66 1.67 1.84 1.97 1.97 1.92
4.73 4.31 3.67 3.40 3.04 2.69 2.37 1.89 1.49 1.28 1.08 1.04 0.96 0.95 1.04 1.14 1.29 1.30 1.35 1.34 1.40 1.42 1.44 1.60 1.83 2.02 2.03 1.96 1.92 1.96 1.94 1.86 1.69 1.64 1.68 1.62 1.45 1.51 1.56 1.67 1.80 1.89 2.03
5.54 4.92 4.12 3.43 3.42 3.19 2.81 2.17 1.66 1.34 1.13 0.97 0.89 0.80 0.79 0.82 0.83 0.87 0.90 0.90 0.90 0.87 0.95 1.13 1.24 1.38 1.58 1.73 1.85 1.84 1.82 1.83 1.69 1.63 1.61 1.58 1.55 1.33 1.53 1.61 1.60 1.66 1.88
5.76 5.51 4.79 4.51 4.27 3.59 2.78 2.12 1.66 1.34 1.17 0.99 0.89 0.76 0.72 0.66 0.64 0.69 0.73 0.76 0.62 0.60 0.65 0.66 0.86 1.02 1.21 1.31 1.24 1.37 1.39 1.38 1.33 1.23 1.26 1.16 1.29 1.24 1.32 1.40 1.46 1.45 1.66
4.73 4.60 4.45 4.47 3.98 3.33 2.61 2.08 1.71 1.41 1.17 1.00 0.86 0.78 0.73 0.67 0.62 0.67 0.61 0.57 0.48 0.53 0.60 0.70 0.85 0.85 0.87 0.95 0.87 0.99 0.98 0.90 0.94 0.94 0.83 0.83 0.91 0.86 0.94 1.10 1.15 1.06 1.35
3.17 3.26 3.51 3.66 3.34 2.78 2.28 1.74 1.44 1.31 1.13 0.97 0.82 0.69 0.68 0.61 0.66 0.68 0.57 0.60 0.52 0.51 0.54 0.56 0.65 0.68 0.66 0.66 0.84 0.94 0.80 0.65 0.64 0.59 0.59 0.66 0.70 0.82 0.96 1.10 1.09 1.09 1.03
2.26 2.57 2.88 3.04 2.85 2.30 2.02 1.72 1.51 1.37 1.21 1.07 0.90 0.74 0.60 0.56 0.59 0.56 0.62 0.50 0.50 0.53 0.54 0.54 0.61 0.61 0.55 0.56 0.73 0.90 0.86 0.86 0.78 0.44 0.53 0.62 0.65 0.83 0.92 0.93 0.99 1.08 0.97
2.01 2.14 2.14 2.32 2.41 2.15 1.99 1.83 1.63 1.49 1.29 1.14 0.98 0.79 0.58 0.54 0.56 0.54 0.52 0.49 0.56 0.46 0.55 0.63 0.63 0.61 0.58 0.51 0.53 0.66 0.73 0.73 0.69 0.61 0.53 0.55 0.62 0.79 0.84 0.93 0.90 0.96 0.98
1.39 1.65 1.85 2.03 2.12 1.98 1.83 1.61 1.39 1.17 0.97 0.79 0.75 0.74 0.68 0.61 0.55 0.51 0.44 0.49 0.55 0.51 0.64 0.51 0.54 0.60 0.59 0.50 0.45 0.40 0.41 0.47 0.56 0.68 0.64 0.55 0.59 0.66 0.68 0.65 0.70 0.85 0.87
0.95 1.31 1.67 1.96 2.11 1.91 1.61 1.44 1.35 1.19 1.04 0.88 0.80 0.89 0.78 0.71 0.61 0.54 0.50 0.51 0.48 0.46 0.55 0.56 0.65 0.59 0.58 0.55 0.45 0.39 0.39 0.38 0.36 0.42 0.58 0.63 0.62 0.48 0.40 0.45 0.55 0.70 0.77
0.75 0.97 1.20 1.47 1.69 1.66 1.49 1.37 1.30 1.25 1.16 1.02 0.82 0.76 0.72 0.71 0.68 0.63 0.60 0.59 0.56 0.49 0.49 0.51 0.56 0.61 0.65 0.69 0.57 0.44 0.44 0.42 0.35 0.36 0.34 0.37 0.49 0.41 0.36 0.39 0.46 0.57 0.63